MB7UIK Weather Reports


time (UTC)temp
C
wind
direction
speed
KPH
gust
KPH
rain 1hr
cm
rain 24hr
cm
rain mn
cm
humidity
%
barometer
mb
20260510093501 13 50 8.0 29.0 0.00 0.00 0.00 100 1015.8
20260510093401 13 38 29.0 29.0 0.00 0.00 0.00 100 1015.9
20260510093301 13 11 14.5 25.7 0.00 0.00 0.00 100 1015.8
20260510093212 13 11 14.5 25.7 0.00 0.00 0.00 100 1015.8
20260510093200 13 19 12.9 25.7 0.00 0.00 0.00 100 1015.8
20260510093100 13 11 16.1 17.7 0.00 0.00 0.00 100 1015.8
20260510093000 13 350 8.0 16.1 0.00 0.00 0.00 100 1015.8
20260510092900 13 46 6.4 16.1 0.00 0.00 0.00 100 1015.8
20260510092800 13 40 11.3 25.7 0.00 0.00 0.00 100 1015.8
20260510092714 13 40 11.3 25.7 0.00 0.00 0.00 100 1015.8
20260510092701 13 24 16.1 25.7 0.00 0.00 0.00 100 1015.8
20260510092601 13 327 8.0 25.7 0.00 0.00 0.00 100 1015.8
20260510092501 13 98 17.7 25.7 0.00 0.00 0.00 100 1015.9
20260510092401 13 16 8.0 16.1 0.00 0.00 0.00 100 1015.8
20260510092300 13 88 6.4 17.7 0.00 0.00 0.00 100 1015.9
20260510092212 13 88 6.4 17.7 0.00 0.00 0.00 100 1015.9
20260510092201 13 360 8.0 17.7 0.00 0.00 0.00 100 1015.9
20260510092101 13 23 8.0 17.7 0.00 0.00 0.00 100 1015.9
20260510092001 13 22 9.7 17.7 0.00 0.00 0.00 100 1015.9
20260510091901 13 9 11.3 17.7 0.00 0.00 0.00 100 1016.0
20260510091801 13 9 4.8 27.4 0.00 0.00 0.00 100 1015.9
20260510091713 13 9 4.8 27.4 0.00 0.00 0.00 100 1015.9
20260510091701 13 44 14.5 27.4 0.00 0.00 0.00 100 1015.9
20260510091602 13 39 17.7 27.4 0.00 0.00 0.00 100 1015.9
20260510091501 13 344 8.0 24.1 0.00 0.00 0.00 100 1015.9
20260510091401 13 9 12.9 17.7 0.00 0.00 0.00 100 1015.9
20260510091300 13 34 19.3 22.5 0.00 0.00 0.00 100 1015.9
20260510091213 13 34 19.3 22.5 0.00 0.00 0.00 100 1015.9
20260510091200 13 355 14.5 22.5 0.00 0.00 0.00 100 1015.9
20260510091100 13 53 12.9 12.9 0.00 0.00 0.00 100 1015.9
20260510091001 13 47 9.7 12.9 0.00 0.00 0.00 100 1016.0
20260510090901 13 9 8.0 11.3 0.00 0.00 0.00 100 1016.0
20260510090801 13 339 4.8 27.4 0.00 0.00 0.00 100 1016.0
20260510090713 13 339 4.8 27.4 0.00 0.00 0.00 100 1016.0
20260510090701 13 350 9.7 27.4 0.00 0.00 0.00 100 1015.9
20260510090600 13 19 20.9 24.1 0.00 0.00 0.00 100 1015.9
20260510090500 13 19 9.7 24.1 0.00 0.00 0.00 100 1016.0
20260510090400 13 27 11.3 11.3 0.00 0.00 0.00 100 1016.0
20260510090300 13 351 16.1 20.9 0.00 0.00 0.00 100 1016.0
20260510090214 13 351 16.1 20.9 0.00 0.00 0.00 100 1016.0
20260510090202 13 41 9.7 20.9 0.00 0.00 0.00 100 1016.0
20260510090001 13 341 20.9 20.9 0.00 0.00 0.00 100 1016.1
20260510085901 13 38 8.0 12.9 0.00 0.00 0.00 100 1016.1
20260510085800 13 26 11.3 17.7 0.00 0.00 0.00 100 1016.1
20260510085713 13 26 11.3 17.7 0.00 0.00 0.00 100 1016.1
20260510085701 13 11 9.7 12.9 0.00 0.00 0.00 100 1016.0
20260510085601 13 351 4.8 9.7 0.00 0.00 0.00 100 1016.0
20260510085501 13 24 3.2 9.7 0.00 0.00 0.00 100 1016.1
20260510085401 13 15 4.8 9.7 0.00 0.00 0.00 100 1016.1
20260510085301 13 33 4.8 24.1 0.00 0.00 0.00 100 1016.1
20260510085213 13 33 4.8 24.1 0.00 0.00 0.00 100 1016.1
20260510085201 13 94 9.7 24.1 0.00 0.00 0.00 100 1016.1
20260510085101 13 67 9.7 24.1 0.00 0.00 0.00 100 1016.1
20260510085001 13 355 4.8 24.1 0.00 0.00 0.00 100 1016.1
20260510084901 13 27 17.7 24.1 0.00 0.00 0.00 100 1016.3
20260510084802 13 49 20.9 27.4 0.00 0.00 0.00 100 1016.2
20260510084714 13 49 20.9 27.4 0.00 0.00 0.00 100 1016.2
20260510084702 13 350 9.7 27.4 0.00 0.00 0.00 100 1016.3
20260510084601 13 19 4.8 27.4 0.00 0.00 0.00 100 1016.2
20260510084501 13 12 16.1 27.4 0.00 0.00 0.00 100 1016.3
20260510084401 13 55 24.1 24.1 0.00 0.00 0.00 100 1016.3
20260510084301 13 343 12.9 16.1 0.00 0.00 0.00 100 1016.2
20260510084213 13 343 12.9 16.1 0.00 0.00 0.00 100 1016.2
20260510084201 13 355 12.9 16.1 0.00 0.00 0.00 100 1016.2
20260510084100 13 50 9.7 16.1 0.00 0.00 0.00 100 1016.3
20260510084000 13 349 4.8 14.5 0.00 0.00 0.00 100 1016.2
20260510083900 13 337 11.3 12.9 0.00 0.00 0.00 100 1016.1
20260510083800 13 55 12.9 20.9 0.00 0.00 0.00 100 1016.3
20260510083714 13 55 12.9 20.9 0.00 0.00 0.00 100 1016.3
20260510083702 13 18 4.8 12.9 0.00 0.00 0.00 100 1016.1
20260510083600 13 61 12.9 12.9 0.00 0.00 0.00 100 1016.1
20260510083501 13 36 3.2 11.3 0.00 0.00 0.00 100 1016.2
20260510083401 13 49 4.8 11.3 0.00 0.00 0.00 100 1016.1
20260510083301 13 33 6.4 12.9 0.00 0.00 0.00 100 1016.1
20260510083213 13 33 6.4 12.9 0.00 0.00 0.00 100 1016.1
20260510083201 13 340 4.8 12.9 0.00 0.00 0.00 100 1016.1
20260510083101 13 355 6.4 9.7 0.00 0.00 0.00 100 1016.1
20260510083001 13 48 9.7 9.7 0.00 0.00 0.00 100 1016.1
20260510082900 13 25 4.8 9.7 0.00 0.00 0.00 100 1016.1
20260510082800 13 22 4.8 16.1 0.00 0.00 0.00 100 1016.1
20260510082712 13 22 4.8 16.1 0.00 0.00 0.00 100 1016.1
20260510082700 13 53 9.7 16.1 0.00 0.00 0.00 100 1016.1
20260510082601 13 69 11.3 16.1 0.00 0.00 0.00 100 1016.1
20260510082501 13 42 12.9 14.5 0.00 0.00 0.00 100 1016.1
20260510082401 13 56 3.2 12.9 0.00 0.00 0.00 100 1016.1
20260510082301 13 64 9.7 16.1 0.00 0.00 0.00 100 1016.1
20260510082213 13 64 9.7 16.1 0.00 0.00 0.00 100 1016.1
20260510082201 13 15 6.4 16.1 0.00 0.00 0.00 100 1016.1
20260510082101 13 37 11.3 16.1 0.00 0.00 0.00 100 1016.1
20260510082001 12 73 4.8 14.5 0.00 0.00 0.00 100 1016.1
20260510081901 12 22 4.8 14.5 0.00 0.00 0.00 100 1016.1
20260510081801 12 40 12.9 14.5 0.00 0.00 0.00 100 1016.1
20260510081713 12 40 12.9 14.5 0.00 0.00 0.00 100 1016.1
20260510081701 12 38 4.8 14.5 0.00 0.00 0.00 100 1016.1
20260510081601 12 38 11.3 14.5 0.00 0.00 0.00 100 1016.1
20260510081501 12 15 3.2 12.9 0.00 0.00 0.00 100 1016.1
20260510081402 12 92 4.8 12.9 0.00 0.00 0.00 100 1016.0
20260510081301 12 78 6.4 16.1 0.00 0.00 0.00 100 1016.1
20260510081213 12 78 6.4 16.1 0.00 0.00 0.00 100 1016.1
20260510081201 12 360 11.3 16.1 0.00 0.00 0.00 100 1016.0
20260510081101 12 86 3.2 16.1 0.00 0.00 0.00 100 1016.0
20260510081001 12 25 6.4 16.1 0.00 0.00 0.00 100 1016.0
20260510080900 12 42 8.0 16.1 0.00 0.00 0.00 100 1016.0
20260510080800 12 9 9.7 17.7 0.00 0.00 0.00 100 1016.0
20260510080713 12 9 9.7 17.7 0.00 0.00 0.00 100 1016.0
20260510080701 12 344 9.7 17.7 0.00 0.00 0.00 100 1016.1
20260510080601 12 343 12.9 17.7 0.00 0.00 0.00 100 1015.9
20260510080501 12 36 11.3 17.7 0.00 0.00 0.00 100 1016.0
20260510080401 12 28 12.9 17.7 0.00 0.00 0.00 100 1016.0
20260510080301 12 360 9.7 17.7 0.00 0.00 0.00 100 1016.0
20260510080214 12 360 9.7 17.7 0.00 0.00 0.00 100 1016.0
20260510080202 12 15 4.8 16.1 0.00 0.00 0.00 100 1016.1
20260510080100 12 5 6.4 16.1 0.00 0.00 0.00 100 1016.1
20260510080000 12 349 9.7 16.1 0.00 0.00 0.00 100 1016.0
20260510075900 12 9 12.9 16.1 0.00 0.00 0.00 100 1016.1
20260510075801 12 351 12.9 22.5 0.00 0.00 0.00 100 1016.1
20260510075712 12 351 12.9 22.5 0.00 0.00 0.00 100 1016.1
20260510075700 12 46 14.5 22.5 0.00 0.00 0.00 100 1016.1
20260510075600 12 36 6.4 16.1 0.00 0.00 0.00 100 1016.2
20260510075500 12 348 8.0 16.1 0.00 0.00 0.00 100 1016.2
20260510075400 12 17 16.1 16.1 0.00 0.00 0.00 100 1016.1
20260510075300 12 332 4.8 16.1 0.00 0.00 0.00 100 1016.2
20260510075212 12 332 4.8 16.1 0.00 0.00 0.00 100 1016.2
20260510075201 12 349 6.4 16.1 0.00 0.00 0.00 100 1016.1
20260510075101 12 355 6.4 16.1 0.00 0.00 0.00 100 1016.2
20260510075001 12 29 8.0 16.1 0.00 0.00 0.00 100 1016.2
20260510074901 12 360 16.1 16.1 0.00 0.00 0.00 100 1016.2
20260510074801 12 40 6.4 19.3 0.00 0.00 0.00 100 1016.2
20260510074714 12 40 6.4 19.3 0.00 0.00 0.00 100 1016.2
20260510074701 12 51 14.5 19.3 0.00 0.00 0.00 100 1016.2
20260510074601 12 333 3.2 11.3 0.00 0.00 0.00 100 1016.2
20260510074501 12 32 4.8 11.3 0.00 0.00 0.00 100 1016.1
20260510074401 12 19 8.0 11.3 0.00 0.00 0.00 100 1016.1
20260510074301 12 59 4.8 16.1 0.00 0.00 0.00 100 1016.1
20260510074213 12 59 4.8 16.1 0.00 0.00 0.00 100 1016.1
20260510074201 12 355 4.8 16.1 0.00 0.00 0.00 100 1016.1
20260510074101 12 30 4.8 16.1 0.00 0.00 0.00 100 1016.0
20260510074001 12 5 11.3 12.9 0.00 0.00 0.00 100 1016.0
20260510073901 12 9 12.9 12.9 0.00 0.00 0.00 100 1016.1
20260510073801 12 344 16.1 16.1 0.00 0.00 0.00 100 1016.0
20260510073713 12 344 16.1 16.1 0.00 0.00 0.00 100 1016.0
20260510073701 12 15 12.9 16.1 0.00 0.00 0.00 100 1016.1
20260510073601 12 14 14.5 16.1 0.00 0.00 0.00 100 1016.1
20260510073501 12 333 6.4 11.3 0.00 0.00 0.00 100 1016.0
20260510073402 12 28 4.8 8.0 0.00 0.00 0.00 100 1016.1
20260510073302 12 346 4.8 14.5 0.00 0.00 0.00 100 1016.1
20260510073214 12 346 4.8 14.5 0.00 0.00 0.00 100 1016.1
20260510073201 12 40 9.7 14.5 0.00 0.00 0.00 100 1016.1
20260510073101 12 360 8.0 14.5 0.00 0.00 0.00 100 1016.1
20260510073001 12 31 11.3 12.9 0.00 0.00 0.00 100 1016.1
20260510072901 12 350 4.8 12.9 0.00 0.00 0.00 100 1016.1
20260510072801 12 355 4.8 12.9 0.00 0.00 0.00 100 1016.1
20260510072713 12 355 4.8 12.9 0.00 0.00 0.00 100 1016.1
20260510072701 12 19 8.0 12.9 0.00 0.00 0.00 100 1016.1
20260510072601 12 11 6.4 12.9 0.00 0.00 0.00 100 1016.1
20260510072501 12 41 8.0 12.9 0.00 0.00 0.00 100 1016.1
20260510072400 12 297 4.8 6.4 0.00 0.00 0.00 100 1016.1
20260510072300 12 355 3.2 17.7 0.00 0.00 0.00 100 1016.2
20260510072214 12 355 3.2 17.7 0.00 0.00 0.00 100 1016.2
20260510072202 12 42 8.0 17.7 0.00 0.00 0.00 100 1016.1
20260510072102 12 11 4.8 17.7 0.00 0.00 0.00 100 1016.1
20260510072001 12 30 4.8 17.7 0.00 0.00 0.00 100 1016.1
20260510071900 12 38 4.8 17.7 0.00 0.00 0.00 100 1016.1
20260510071800 12 12 12.9 12.9 0.00 0.00 0.00 100 1016.1
20260510071712 12 12 12.9 12.9 0.00 0.00 0.00 100 1016.1
20260510071700 12 17 9.7 11.3 0.00 0.00 0.00 100 1016.1
20260510071600 12 75 9.7 11.3 0.00 0.00 0.00 100 1016.2
20260510071500 12 47 11.3 11.3 0.00 0.00 0.00 100 1016.2
20260510071400 12 24 3.2 4.8 0.00 0.00 0.00 100 1016.3
20260510071300 12 34 6.4 17.7 0.00 0.00 0.00 100 1016.2
20260510071213 12 34 6.4 17.7 0.00 0.00 0.00 100 1016.2
20260510071201 12 360 6.4 17.7 0.00 0.00 0.00 100 1016.2
20260510071101 12 355 6.4 17.7 0.00 0.00 0.00 100 1016.3
20260510071000 12 31 4.8 17.7 0.00 0.00 0.00 100 1016.2
20260510070900 12 27 8.0 17.7 0.00 0.00 0.00 100 1016.2
20260510070800 12 55 16.1 16.1 0.00 0.00 0.00 100 1016.3
20260510070712 12 55 16.1 16.1 0.00 0.00 0.00 100 1016.3
20260510070700 12 51 4.8 16.1 0.00 0.00 0.00 100 1016.3
20260510070602 12 32 3.2 16.1 0.00 0.00 0.00 100 1016.3
20260510070502 12 16 9.7 16.1 0.00 0.00 0.00 100 1016.3
20260510070402 12 5 6.4 11.3 0.00 0.00 0.00 100 1016.3
20260510070302 12 30 11.3 11.3 0.00 0.00 0.00 100 1016.2
20260510070214 12 30 11.3 11.3 0.00 0.00 0.00 100 1016.2
20260510070201 12 360 8.0 11.3 0.00 0.00 0.00 100 1016.3
20260510070001 12 360 9.7 9.7 0.00 0.00 0.00 100 1016.3
20260510065900 12 5 4.8 4.8 0.00 0.00 0.00 100 1016.3
20260510065800 12 24 4.8 9.7 0.00 0.00 0.00 100 1016.3
20260510065712 12 24 4.8 9.7 0.00 0.00 0.00 100 1016.3
20260510065700 12 36 3.2 9.7 0.00 0.00 0.00 100 1016.3
20260510065600 12 84 4.8 9.7 0.00 0.00 0.00 100 1016.3
20260510065501 12 333 9.7 9.7 0.00 0.00 0.00 100 1016.3
20260510065401 12 355 4.8 4.8 0.00 0.00 0.00 100 1016.2
20260510065301 12 355 4.8 4.8 0.00 0.00 0.00 100 1016.3
20260510065213 12 355 4.8 4.8 0.00 0.00 0.00 100 1016.3
20260510065201 12 355 4.8 4.8 0.00 0.00 0.00 100 1016.2
20260510065101 12 355 4.8 4.8 0.00 0.00 0.00 100 1016.1
20260510065001 12 355 4.8 4.8 0.00 0.00 0.00 100 1016.1
20260510064901 12 355 4.8 4.8 0.00 0.00 0.00 100 1016.1
20260510064800 12 355 4.8 6.4 0.00 0.00 0.00 100 1016.1
20260510064712 12 355 4.8 6.4 0.00 0.00 0.00 100 1016.1
20260510064700 12 355 4.8 6.4 0.00 0.00 0.00 100 1016.2
20260510064600 12 355 4.8 6.4 0.00 0.00 0.00 100 1016.2
20260510064500 12 355 4.8 6.4 0.00 0.00 0.00 100 1016.3
20260510064400 12 355 4.8 6.4 0.00 0.00 0.00 100 1016.3
20260510064300 12 60 4.8 16.1 0.00 0.00 0.00 100 1016.3
20260510064213 12 60 4.8 16.1 0.00 0.00 0.00 100 1016.3
20260510064201 12 19 6.4 16.1 0.00 0.00 0.00 100 1016.3
20260510064102 12 46 9.7 16.1 0.00 0.00 0.00 100 1016.3
20260510064001 12 32 3.2 12.9 0.00 0.00 0.00 100 1016.3
20260510063901 12 26 6.4 12.9 0.00 0.00 0.00 100 1016.3
20260510063801 12 5 4.8 8.0 0.00 0.00 0.00 100 1016.3
20260510063712 12 5 4.8 8.0 0.00 0.00 0.00 100 1016.3
20260510063700 12 69 6.4 8.0 0.00 0.00 0.00 100 1016.3
20260510063600 12 9 4.8 8.0 0.00 0.00 0.00 100 1016.3
20260510063500 12 57 3.2 4.8 0.00 0.00 0.00 100 1016.3
20260510063400 12 327 4.8 4.8 0.00 0.00 0.00 100 1016.3
20260510063300 12 38 3.2 6.4 0.00 0.00 0.00 100 1016.3
20260510063212 12 38 3.2 6.4 0.00 0.00 0.00 100 1016.3
20260510063200 12 322 4.8 4.8 0.00 0.00 0.00 100 1016.4
20260510063100 12 66 4.8 4.8 0.00 0.00 0.00 100 1016.3
20260510063000 12 330 4.8 4.8 0.00 0.00 0.00 100 1016.3
20260510062900 12 34 1.6 4.8 0.00 0.00 0.00 100 1016.3
20260510062800 12 115 4.8 11.3 0.00 0.00 0.00 100 1016.3
20260510062712 12 115 4.8 11.3 0.00 0.00 0.00 100 1016.3
20260510062700 12 17 6.4 11.3 0.00 0.00 0.00 100 1016.3
20260510062601 12 49 3.2 11.3 0.00 0.00 0.00 100 1016.2
20260510062501 12 39 4.8 11.3 0.00 0.00 0.00 100 1016.2
20260510062401 12 355 8.0 11.3 0.00 0.00 0.00 100 1016.3
20260510062301 12 25 14.5 16.1 0.00 0.00 0.00 100 1016.2
20260510062213 12 25 14.5 16.1 0.00 0.00 0.00 100 1016.2
20260510062200 12 33 6.4 11.3 0.00 0.00 0.00 100 1016.3
20260510062100 12 17 6.4 11.3 0.00 0.00 0.00 100 1016.3
20260510062000 12 26 4.8 6.4 0.00 0.00 0.00 100 1016.3
20260510061900 12 20 3.2 6.4 0.00 0.00 0.00 100 1016.3
20260510061800 12 19 9.7 16.1 0.00 0.00 0.00 100 1016.2
20260510061712 12 19 9.7 16.1 0.00 0.00 0.00 100 1016.2
20260510061700 12 57 14.5 14.5 0.00 0.00 0.00 100 1016.2
20260510061601 12 333 6.4 14.5 0.00 0.00 0.00 100 1016.2
20260510061501 12 52 4.8 14.5 0.00 0.00 0.00 100 1016.3
20260510061401 12 360 8.0 12.9 0.00 0.00 0.00 100 1016.3
20260510061301 12 346 4.8 16.1 0.00 0.00 0.00 100 1016.3
20260510061213 12 346 4.8 16.1 0.00 0.00 0.00 100 1016.3
20260510061201 12 34 4.8 16.1 0.00 0.00 0.00 100 1016.3
20260510061100 12 355 3.2 16.1 0.00 0.00 0.00 100 1016.3
20260510061000 12 49 4.8 16.1 0.00 0.00 0.00 100 1016.3
20260510060900 12 5 9.7 16.1 0.00 0.00 0.00 100 1016.3
20260510060800 12 18 14.5 17.7 0.00 0.00 0.00 100 1016.3
20260510060712 12 18 14.5 17.7 0.00 0.00 0.00 100 1016.3
20260510060700 12 40 16.1 17.7 0.00 0.00 0.00 100 1016.3
20260510060600 12 5 4.8 12.9 0.00 0.00 0.00 100 1016.3
20260510060500 12 46 1.6 12.9 0.00 0.00 0.00 100 1016.4
20260510060400 12 45 4.8 12.9 0.00 0.00 0.00 100 1016.4
20260510060301 11 50 3.2 12.9 0.00 0.00 0.00 100 1016.3
20260510060213 11 50 3.2 12.9 0.00 0.00 0.00 100 1016.3
20260510060201 12 35 4.8 12.9 0.00 0.00 0.00 100 1016.3
20260510060100 11 27 8.0 12.9 0.00 0.00 0.00 100 1016.2
20260510060000 11 59 4.8 6.4 0.00 0.00 0.00 100 1016.2
20260510055900 11 28 6.4 6.4 0.00 0.00 0.00 100 1016.2
20260510055800 11 355 4.8 20.9 0.00 0.00 0.00 100 1016.2
20260510055712 11 355 4.8 20.9 0.00 0.00 0.00 100 1016.2
20260510055700 11 344 4.8 20.9 0.00 0.00 0.00 100 1016.1
20260510055600 11 9 8.0 20.9 0.00 0.00 0.00 100 1016.2
20260510055500 11 330 9.7 20.9 0.00 0.00 0.00 100 1016.2
20260510055400 12 79 6.4 14.5 0.00 0.00 0.00 100 1016.1
20260510055301 11 348 9.7 19.3 0.00 0.00 0.00 100 1016.1
20260510055213 11 348 9.7 19.3 0.00 0.00 0.00 100 1016.1
20260510055201 11 9 4.8 19.3 0.00 0.00 0.00 100 1016.1
20260510055101 12 355 4.8 19.3 0.00 0.00 0.00 100 1016.1
20260510055001 12 51 16.1 19.3 0.00 0.00 0.00 100 1016.1
20260510054901 12 37 16.1 16.1 0.00 0.00 0.00 100 1016.0
20260510054801 12 24 4.8 14.5 0.00 0.00 0.00 100 1016.0
20260510054713 12 24 4.8 14.5 0.00 0.00 0.00 100 1016.0
20260510054701 12 21 12.9 14.5 0.00 0.00 0.00 100 1016.1
20260510054600 12 35 4.8 12.9 0.00 0.00 0.00 100 1016.1
20260510054500 12 48 3.2 11.3 0.00 0.00 0.00 100 1016.1
20260510054400 12 69 9.7 11.3 0.00 0.00 0.00 100 1016.1
20260510054300 12 355 3.2 17.7 0.00 0.00 0.00 100 1016.1
20260510054212 12 355 3.2 17.7 0.00 0.00 0.00 100 1016.1
20260510054202 12 350 6.4 17.7 0.00 0.00 0.00 100 1016.1
20260510054101 12 355 14.5 17.7 0.00 0.00 0.00 100 1016.1
20260510054001 12 342 9.7 17.7 0.00 0.00 0.00 100 1016.1
20260510053901 12 360 9.7 16.1 0.00 0.00 0.00 100 1016.1
20260510053801 12 50 8.0 16.1 0.00 0.00 0.00 100 1016.0
20260510053713 12 50 8.0 16.1 0.00 0.00 0.00 100 1016.0
20260510053701 12 20 4.8 14.5 0.00 0.00 0.00 100 1016.1
20260510053601 12 38 14.5 14.5 0.00 0.00 0.00 100 1016.1
20260510053501 12 349 4.8 11.3 0.00 0.00 0.00 100 1016.1
20260510053401 12 34 8.0 11.3 0.00 0.00 0.00 100 1016.1
20260510053301 11 360 6.4 24.1 0.00 0.00 0.00 100 1016.1
20260510053213 11 360 6.4 24.1 0.00 0.00 0.00 100 1016.1
20260510053201 12 331 17.7 24.1 0.00 0.00 0.00 100 1016.2
20260510053100 12 339 9.7 12.9 0.00 0.00 0.00 100 1016.2
20260510053001 11 63 12.9 12.9 0.00 0.00 0.00 100 1016.2
20260510052901 11 13 6.4 9.7 0.00 0.00 0.00 100 1016.2
20260510052801 11 24 8.0 17.7 0.00 0.00 0.00 100 1016.1
20260510052713 11 24 8.0 17.7 0.00 0.00 0.00 100 1016.1
20260510052701 11 51 8.0 17.7 0.00 0.00 0.00 100 1016.3
20260510052601 11 35 1.6 14.5 0.00 0.00 0.00 100 1016.2
20260510052501 11 51 4.8 14.5 0.00 0.00 0.00 100 1016.2
20260510052401 11 338 6.4 8.0 0.00 0.00 0.00 100 1016.2
20260510052300 11 46 6.4 11.3 0.00 0.00 0.00 100 1016.2
20260510052212 11 46 6.4 11.3 0.00 0.00 0.00 100 1016.2
20260510052200 11 36 4.8 9.7 0.00 0.00 0.00 100 1016.2
20260510052100 11 46 3.2 6.4 0.00 0.00 0.00 100 1016.2
20260510052000 11 30 4.8 6.4 0.00 0.00 0.00 100 1016.1
20260510051901 11 350 4.8 6.4 0.00 0.00 0.00 100 1016.2
20260510051801 11 20 4.8 11.3 0.00 0.00 0.00 100 1016.1
20260510051713 11 20 4.8 11.3 0.00 0.00 0.00 100 1016.1
20260510051701 11 44 11.3 11.3 0.00 0.00 0.00 100 1016.1
20260510051601 11 39 4.8 9.7 0.00 0.00 0.00 100 1016.1
20260510051501 11 31 4.8 9.7 0.00 0.00 0.00 100 1016.1
20260510051401 11 52 4.8 4.8 0.00 0.00 0.00 100 1016.0
20260510051301 11 28 4.8 9.7 0.00 0.00 0.00 100 1016.1
20260510051213 11 28 4.8 9.7 0.00 0.00 0.00 100 1016.1
20260510051200 11 5 3.2 9.7 0.00 0.00 0.00 100 1016.0
20260510051100 11 29 4.8 9.7 0.00 0.00 0.00 100 1016.1
20260510051000 11 61 4.8 6.4 0.00 0.00 0.00 100 1016.0
20260510050900 11 40 3.2 6.4 0.00 0.00 0.00 100 1016.0
20260510050800 11 5 3.2 9.7 0.00 0.00 0.00 100 1016.1
20260510050712 11 5 3.2 9.7 0.00 0.00 0.00 100 1016.1
20260510050700 11 355 4.8 9.7 0.00 0.00 0.00 100 1016.0
20260510050600 11 11 4.8 9.7 0.00 0.00 0.00 100 1016.0
20260510050500 11 16 3.2 8.0 0.00 0.00 0.00 100 1016.0
20260510050400 11 12 4.8 4.8 0.00 0.00 0.00 100 1016.0
20260510050301 11 9 3.2 14.5 0.00 0.00 0.00 100 1016.0
20260510050213 11 9 3.2 14.5 0.00 0.00 0.00 100 1016.0
20260510050201 11 108 4.8 14.5 0.00 0.00 0.00 100 1016.0
20260510050101 11 47 6.4 14.5 0.00 0.00 0.00 100 1015.9
20260510050001 11 41 6.4 14.5 0.00 0.00 0.00 100 1016.0
20260510045900 11 15 4.8 11.3 0.00 0.00 0.00 100 1016.0
20260510045800 11 76 11.3 20.9 0.00 0.00 0.00 100 1016.0
20260510045712 11 76 11.3 20.9 0.00 0.00 0.00 100 1016.0
20260510045700 11 61 11.3 16.1 0.00 0.00 0.00 100 1015.9
20260510045601 11 37 4.8 11.3 0.00 0.00 0.00 100 1015.9
20260510045501 11 37 4.8 11.3 0.00 0.00 0.00 100 1015.9
20260510045401 11 24 3.2 6.4 0.00 0.00 0.00 100 1015.9
20260510045301 11 25 4.8 16.1 0.00 0.00 0.00 100 1015.8
20260510045213 11 25 4.8 16.1 0.00 0.00 0.00 100 1015.8
20260510045201 11 13 3.2 16.1 0.00 0.00 0.00 100 1015.9
20260510045101 11 52 9.7 16.1 0.00 0.00 0.00 100 1015.9
20260510045001 11 15 4.8 11.3 0.00 0.00 0.00 100 1015.9
20260510044901 11 45 8.0 11.3 0.00 0.00 0.00 100 1015.9
20260510044801 11 341 6.4 17.7 0.00 0.00 0.00 100 1015.9
20260510044713 11 341 6.4 17.7 0.00 0.00 0.00 100 1015.9
20260510044701 11 333 9.7 14.5 0.00 0.00 0.00 100 1015.8
20260510044601 11 360 8.0 11.3 0.00 0.00 0.00 100 1015.9
20260510044502 11 46 11.3 11.3 0.00 0.00 0.00 100 1015.9
20260510044401 11 360 8.0 8.0 0.00 0.00 0.00 100 1015.9
20260510044301 11 35 1.6 12.9 0.00 0.00 0.00 100 1015.9
20260510044213 11 35 1.6 12.9 0.00 0.00 0.00 100 1015.9
20260510044201 11 55 8.0 12.9 0.00 0.00 0.00 100 1015.8
20260510044101 11 32 3.2 12.9 0.00 0.00 0.00 100 1015.9
20260510044001 11 59 12.9 12.9 0.00 0.00 0.00 100 1015.8
20260510043901 11 343 3.2 3.2 0.00 0.00 0.00 100 1015.8
20260510043801 11 343 4.8 12.9 0.00 0.00 0.00 100 1015.9
20260510043713 11 343 4.8 12.9 0.00 0.00 0.00 100 1015.9
20260510043701 11 76 3.2 12.9 0.00 0.00 0.00 100 1015.8
20260510043601 11 72 3.2 12.9 0.00 0.00 0.00 100 1015.9
20260510043500 11 26 8.0 12.9 0.00 0.00 0.00 100 1015.8
20260510043400 11 32 4.8 11.3 0.00 0.00 0.00 100 1015.8
20260510043300 11 340 4.8 9.7 0.00 0.00 0.00 100 1015.9
20260510043212 11 340 4.8 9.7 0.00 0.00 0.00 100 1015.9
20260510043200 11 34 1.6 9.7 0.00 0.00 0.00 100 1015.9
20260510043101 11 331 8.0 8.0 0.00 0.00 0.00 100 1015.9
20260510043001 11 327 1.6 4.8 0.00 0.00 0.00 100 1015.9
20260510042900 11 19 4.8 4.8 0.00 0.00 0.00 100 1015.9
20260510042800 11 348 4.8 8.0 0.00 0.00 0.00 100 1016.0
20260510042712 11 348 4.8 8.0 0.00 0.00 0.00 100 1016.0
20260510042700 11 339 3.2 6.4 0.00 0.00 0.00 100 1016.0
20260510042600 11 287 3.2 6.4 0.00 0.00 0.00 100 1016.0
20260510042500 11 360 4.8 6.4 0.00 0.00 0.00 100 1016.0
20260510042400 11 336 4.8 6.4 0.00 0.00 0.00 100 1016.0
20260510042300 11 5 4.8 11.3 0.00 0.00 0.00 100 1016.0
20260510042212 11 5 4.8 11.3 0.00 0.00 0.00 100 1016.0
20260510042200 11 53 4.8 11.3 0.00 0.00 0.00 100 1016.0
20260510042100 11 331 4.8 11.3 0.00 0.00 0.00 100 1016.0
20260510042000 11 30 4.8 9.7 0.00 0.00 0.00 100 1016.1
20260510041900 11 22 3.2 4.8 0.00 0.00 0.00 100 1016.0
20260510041800 11 360 4.8 11.3 0.00 0.00 0.00 100 1016.0
20260510041712 11 360 4.8 11.3 0.00 0.00 0.00 100 1016.0
20260510041700 11 19 11.3 11.3 0.00 0.00 0.00 100 1016.0
20260510041601 11 36 6.4 9.7 0.00 0.00 0.00 100 1016.0
20260510041502 11 82 9.7 9.7 0.00 0.00 0.00 100 1016.0
20260510041401 11 9 4.8 4.8 0.00 0.00 0.00 100 1016.0
20260510041301 11 33 8.0 9.7 0.00 0.00 0.00 100 1016.0
20260510041213 11 33 8.0 9.7 0.00 0.00 0.00 100 1016.0
20260510041201 11 15 8.0 9.7 0.00 0.00 0.00 100 1016.0
20260510041100 11 338 4.8 9.7 0.00 0.00 0.00 100 1016.0
20260510041000 11 344 3.2 8.0 0.00 0.00 0.00 100 1016.0
20260510040900 11 14 4.8 4.8 0.00 0.00 0.00 100 1016.0
20260510040800 11 9 4.8 12.9 0.00 0.00 0.00 100 1016.0
20260510040712 11 9 4.8 12.9 0.00 0.00 0.00 100 1016.0
20260510040700 11 62 6.4 12.9 0.00 0.00 0.00 100 1015.9
20260510040600 11 36 3.2 12.9 0.00 0.00 0.00 100 1016.0
20260510040500 11 33 6.4 12.9 0.00 0.00 0.00 100 1016.0
20260510040400 11 346 4.8 12.9 0.00 0.00 0.00 100 1016.0
20260510040300 11 15 6.4 14.5 0.00 0.00 0.00 100 1015.9
20260510040213 11 15 6.4 14.5 0.00 0.00 0.00 100 1015.9
20260510040201 11 46 4.8 14.5 0.00 0.00 0.00 100 1016.0
20260510040100 11 334 8.0 14.5 0.00 0.00 0.00 100 1016.0
20260510040000 11 10 8.0 12.9 0.00 0.00 0.00 100 1016.1
20260510035900 11 9 6.4 6.4 0.00 0.00 0.00 100 1016.0
20260510035800 11 9 9.7 11.3 0.00 0.00 0.00 100 1016.0
20260510035712 11 9 9.7 11.3 0.00 0.00 0.00 100 1016.0
20260510035700 11 9 3.2 11.3 0.00 0.00 0.00 100 1016.0
20260510035600 11 360 4.8 11.3 0.00 0.00 0.00 100 1016.1
20260510035500 11 15 4.8 11.3 0.00 0.00 0.00 100 1016.1
20260510035401 11 11 6.4 6.4 0.00 0.00 0.00 100 1016.1
20260510035301 11 346 4.8 12.9 0.00 0.00 0.00 100 1016.2
20260510035213 11 346 4.8 12.9 0.00 0.00 0.00 100 1016.2
20260510035201 11 12 4.8 12.9 0.00 0.00 0.00 100 1016.1
20260510035101 11 333 4.8 12.9 0.00 0.00 0.00 100 1016.2
20260510035001 11 15 9.7 9.7 0.00 0.00 0.00 100 1016.1
20260510034901 11 355 8.0 9.7 0.00 0.00 0.00 100 1016.1
20260510034801 11 11 4.8 11.3 0.00 0.00 0.00 100 1016.1
20260510034713 11 11 4.8 11.3 0.00 0.00 0.00 100 1016.1
20260510034701 11 9 9.7 11.3 0.00 0.00 0.00 100 1016.1
20260510034600 11 23 6.4 9.7 0.00 0.00 0.00 100 1016.1
20260510034500 11 341 8.0 9.7 0.00 0.00 0.00 100 1016.0
20260510034400 11 350 4.8 9.7 0.00 0.00 0.00 100 1016.1
20260510034300 11 346 6.4 11.3 0.00 0.00 0.00 100 1016.0
20260510034212 11 346 6.4 11.3 0.00 0.00 0.00 100 1016.0
20260510034200 11 38 4.8 11.3 0.00 0.00 0.00 100 1016.0
20260510034100 11 336 6.4 11.3 0.00 0.00 0.00 100 1016.1
20260510034000 11 11 4.8 11.3 0.00 0.00 0.00 100 1016.1
20260510033900 11 342 6.4 8.0 0.00 0.00 0.00 100 1016.0
20260510033800 11 336 6.4 11.3 0.00 0.00 0.00 100 1016.1
20260510033714 11 336 6.4 11.3 0.00 0.00 0.00 100 1016.1
20260510033702 12 9 6.4 11.3 0.00 0.00 0.00 100 1016.0
20260510033601 12 350 11.3 11.3 0.00 0.00 0.00 100 1016.0
20260510033500 12 351 8.0 8.0 0.00 0.00 0.00 100 1016.0
20260510033400 12 330 8.0 8.0 0.00 0.00 0.00 100 1016.0
20260510033300 12 11 6.4 12.9 0.00 0.00 0.00 100 1016.0
20260510033212 12 11 6.4 12.9 0.00 0.00 0.00 100 1016.0
20260510033200 12 327 11.3 12.9 0.00 0.00 0.00 100 1016.0
20260510033100 12 14 4.8 11.3 0.00 0.00 0.00 100 1016.0
20260510033000 12 9 9.7 11.3 0.00 0.00 0.00 100 1016.0
20260510032900 12 355 9.7 9.7 0.00 0.00 0.00 100 1016.0
20260510032800 12 20 9.7 12.9 0.00 0.00 0.00 100 1016.0
20260510032714 12 20 9.7 12.9 0.00 0.00 0.00 100 1016.0
20260510032702 12 25 4.8 12.9 0.00 0.00 0.00 100 1016.0
20260510032601 12 355 9.7 12.9 0.00 0.00 0.00 100 1016.0
20260510032502 12 360 11.3 11.3 0.00 0.00 0.00 100 1016.0
20260510032401 12 14 6.4 6.4 0.00 0.00 0.00 100 1016.0
20260510032305 12 351 3.2 9.7 0.00 0.00 0.00 100 1016.0
20260510032213 12 351 3.2 9.7 0.00 0.00 0.00 100 1016.0
20260510032201 12 346 4.8 9.7 0.00 0.00 0.00 100 1016.0
20260510032100 12 344 4.8 9.7 0.00 0.00 0.00 100 1016.0
20260510032000 12 350 4.8 9.7 0.00 0.00 0.00 100 1016.0
20260510031900 12 19 6.4 6.4 0.00 0.00 0.00 100 1016.0
20260510031800 12 36 4.8 9.7 0.00 0.00 0.00 100 1015.9
20260510031713 12 36 4.8 9.7 0.00 0.00 0.00 100 1015.9
20260510031701 12 37 3.2 9.7 0.00 0.00 0.00 100 1016.0
20260510031601 12 28 3.2 9.7 0.00 0.00 0.00 100 1016.0
20260510031501 12 10 4.8 9.7 0.00 0.00 0.00 100 1016.0
20260510031401 12 360 9.7 9.7 0.00 0.00 0.00 100 1016.0
20260510031301 12 15 4.8 11.3 0.00 0.00 0.00 100 1016.0
20260510031214 12 15 4.8 11.3 0.00 0.00 0.00 100 1016.0
20260510031202 12 19 6.4 11.3 0.00 0.00 0.00 100 1015.9
20260510031101 12 16 6.4 11.3 0.00 0.00 0.00 100 1015.9
20260510031001 12 360 6.4 11.3 0.00 0.00 0.00 100 1015.9
20260510030901 12 24 11.3 11.3 0.00 0.00 0.00 100 1016.0
20260510030801 12 15 9.7 11.3 0.00 0.00 0.00 100 1015.9
20260510030713 12 15 9.7 11.3 0.00 0.00 0.00 100 1015.9
20260510030701 12 26 4.8 9.7 0.00 0.00 0.00 100 1015.9
20260510030601 12 26 6.4 9.7 0.00 0.00 0.00 100 1015.9
20260510030501 12 339 6.4 9.7 0.00 0.00 0.00 100 1015.9
20260510030400 12 28 9.7 9.7 0.00 0.00 0.00 100 1015.9
20260510030300 12 13 4.8 14.5 0.00 0.00 0.00 100 1016.0
20260510030212 12 13 4.8 14.5 0.00 0.00 0.00 100 1016.0
20260510030200 12 11 11.3 14.5 0.00 0.00 0.00 100 1015.9
20260510030001 12 342 4.8 8.0 0.00 0.00 0.00 100 1015.9
20260510025901 12 50 6.4 8.0 0.00 0.00 0.00 100 1016.0
20260510025801 12 59 6.4 8.0 0.00 0.00 0.00 100 1015.9
20260510025713 12 59 6.4 8.0 0.00 0.00 0.00 100 1015.9
20260510025701 12 38 4.8 8.0 0.00 0.00 0.00 100 1015.9
20260510025600 12 57 4.8 8.0 0.00 0.00 0.00 100 1016.0
20260510025500 12 360 4.8 8.0 0.00 0.00 0.00 100 1016.0
20260510025400 12 19 4.8 6.4 0.00 0.00 0.00 100 1016.0
20260510025300 12 5 4.8 12.9 0.00 0.00 0.00 100 1016.0
20260510025212 12 5 4.8 12.9 0.00 0.00 0.00 100 1016.0
20260510025200 12 45 6.4 12.9 0.00 0.00 0.00 100 1016.0
20260510025101 12 31 4.8 9.7 0.00 0.00 0.00 100 1016.0
20260510025001 12 57 4.8 9.7 0.00 0.00 0.00 100 1016.0
20260510024901 12 15 4.8 9.7 0.00 0.00 0.00 100 1016.0
20260510024801 12 355 9.7 9.7 0.00 0.00 0.00 100 1016.0
20260510024713 12 355 9.7 9.7 0.00 0.00 0.00 100 1016.0
20260510024701 12 360 4.8 9.7 0.00 0.00 0.00 100 1016.0
20260510024601 12 31 4.8 9.7 0.00 0.00 0.00 100 1016.1
20260510024501 12 16 6.4 9.7 0.00 0.00 0.00 100 1016.0
20260510024401 12 10 8.0 8.0 0.00 0.00 0.00 100 1016.0
20260510024301 12 10 4.8 14.5 0.00 0.00 0.00 100 1016.0
20260510024214 12 10 4.8 14.5 0.00 0.00 0.00 100 1016.0
20260510024201 12 350 4.8 14.5 0.00 0.00 0.00 100 1016.1
20260510024101 12 52 4.8 9.7 0.00 0.00 0.00 100 1016.0
20260510024001 12 11 8.0 9.7 0.00 0.00 0.00 100 1016.0
20260510023901 12 11 4.8 9.7 0.00 0.00 0.00 100 1016.1
20260510023801 12 9 16.1 16.1 0.00 0.00 0.00 100 1016.1
20260510023713 12 9 16.1 16.1 0.00 0.00 0.00 100 1016.1
20260510023701 12 20 4.8 8.0 0.00 0.00 0.00 100 1016.1
20260510023601 12 5 4.8 8.0 0.00 0.00 0.00 100 1016.0
20260510023501 12 26 6.4 8.0 0.00 0.00 0.00 100 1016.0
20260510023402 12 360 8.0 8.0 0.00 0.00 0.00 100 1016.1
20260510023302 12 37 6.4 9.7 0.00 0.00 0.00 100 1016.1
20260510023214 12 37 6.4 9.7 0.00 0.00 0.00 100 1016.1
20260510023201 12 9 4.8 8.0 0.00 0.00 0.00 100 1016.1
20260510023101 12 341 4.8 8.0 0.00 0.00 0.00 100 1016.1
20260510023001 12 45 4.8 8.0 0.00 0.00 0.00 100 1016.1
20260510022901 12 15 6.4 8.0 0.00 0.00 0.00 100 1016.1
20260510022801 12 360 4.8 9.7 0.00 0.00 0.00 100 1016.0
20260510022713 12 360 4.8 9.7 0.00 0.00 0.00 100 1016.0
20260510022701 12 56 4.8 9.7 0.00 0.00 0.00 100 1016.0
20260510022601 12 17 9.7 9.7 0.00 0.00 0.00 100 1016.0
20260510022501 12 351 6.4 9.7 0.00 0.00 0.00 100 1016.0
20260510022401 12 344 3.2 9.7 0.00 0.00 0.00 100 1016.0
20260510022301 12 46 6.4 12.9 0.00 0.00 0.00 100 1016.0
20260510022213 12 46 6.4 12.9 0.00 0.00 0.00 100 1016.0
20260510022200 12 360 4.8 12.9 0.00 0.00 0.00 100 1015.9
20260510022100 12 346 4.8 12.9 0.00 0.00 0.00 100 1016.0
20260510022000 12 360 4.8 12.9 0.00 0.00 0.00 100 1016.0
20260510021901 12 5 4.8 12.9 0.00 0.00 0.00 100 1016.0
20260510021801 12 360 11.3 12.9 0.00 0.00 0.00 100 1015.9
20260510021713 12 360 11.3 12.9 0.00 0.00 0.00 100 1015.9
20260510021701 12 10 12.9 12.9 0.00 0.00 0.00 100 1015.9
20260510021601 12 62 4.8 8.0 0.00 0.00 0.00 100 1015.9
20260510021501 12 52 4.8 8.0 0.00 0.00 0.00 100 1015.9
20260510021401 12 39 4.8 4.8 0.00 0.00 0.00 100 1015.9
20260510021300 12 27 4.8 14.5 0.00 0.00 0.00 100 1015.9
20260510021212 12 27 4.8 14.5 0.00 0.00 0.00 100 1015.9
20260510021200 12 11 4.8 14.5 0.00 0.00 0.00 100 1015.9
20260510021100 12 46 12.9 14.5 0.00 0.00 0.00 100 1015.9
20260510021000 12 360 4.8 9.7 0.00 0.00 0.00 100 1015.9
20260510020900 12 346 4.8 6.4 0.00 0.00 0.00 100 1015.9
20260510020801 12 57 12.9 12.9 0.00 0.00 0.00 100 1015.9
20260510020713 12 57 12.9 12.9 0.00 0.00 0.00 100 1015.9
20260510020700 12 61 9.7 11.3 0.00 0.00 0.00 100 1015.9
20260510020600 12 5 4.8 11.3 0.00 0.00 0.00 100 1016.0
20260510020500 12 360 4.8 11.3 0.00 0.00 0.00 100 1016.0
20260510020401 12 46 11.3 11.3 0.00 0.00 0.00 100 1016.0
20260510020301 12 15 4.8 14.5 0.00 0.00 0.00 100 1016.0
20260510020213 12 15 4.8 14.5 0.00 0.00 0.00 100 1016.0
20260510020201 12 340 12.9 14.5 0.00 0.00 0.00 100 1016.0
20260510020101 12 12 9.7 14.5 0.00 0.00 0.00 100 1015.9
20260510020001 12 355 14.5 14.5 0.00 0.00 0.00 100 1016.0
20260510015901 12 351 8.0 8.0 0.00 0.00 0.00 100 1016.0
20260510015801 12 15 8.0 9.7 0.00 0.00 0.00 100 1016.0
20260510015713 12 15 8.0 9.7 0.00 0.00 0.00 100 1016.0
20260510015701 12 350 6.4 9.7 0.00 0.00 0.00 100 1016.0
20260510015601 12 20 6.4 9.7 0.00 0.00 0.00 100 1016.0
20260510015501 12 51 4.8 6.4 0.00 0.00 0.00 100 1016.0
20260510015401 12 351 4.8 6.4 0.00 0.00 0.00 100 1016.0
20260510015301 12 331 4.8 9.7 0.00 0.00 0.00 100 1016.0
20260510015213 12 331 4.8 9.7 0.00 0.00 0.00 100 1016.0
20260510015201 12 15 6.4 9.7 0.00 0.00 0.00 100 1016.0
20260510015101 12 346 4.8 9.7 0.00 0.00 0.00 100 1016.1
20260510015001 12 355 4.8 9.7 0.00 0.00 0.00 100 1016.1
20260510014901 12 29 6.4 6.4 0.00 0.00 0.00 100 1016.1
20260510014801 12 28 4.8 8.0 0.00 0.00 0.00 100 1016.1
20260510014713 12 28 4.8 8.0 0.00 0.00 0.00 100 1016.1
20260510014701 12 360 4.8 8.0 0.00 0.00 0.00 100 1016.0
20260510014601 12 19 6.4 8.0 0.00 0.00 0.00 100 1016.0
20260510014500 12 360 4.8 6.4 0.00 0.00 0.00 100 1016.1
20260510014401 12 44 4.8 4.8 0.00 0.00 0.00 100 1016.0
20260510014301 12 9 4.8 8.0 0.00 0.00 0.00 100 1016.1
20260510014213 12 9 4.8 8.0 0.00 0.00 0.00 100 1016.1
20260510014201 12 21 3.2 8.0 0.00 0.00 0.00 100 1016.1
20260510014101 12 9 4.8 8.0 0.00 0.00 0.00 100 1016.1
20260510014000 12 351 3.2 6.4 0.00 0.00 0.00 100 1016.1
20260510013900 12 32 1.6 4.8 0.00 0.00 0.00 100 1016.1
20260510013800 12 28 4.8 9.7 0.00 0.00 0.00 100 1016.1
20260510013712 12 28 4.8 9.7 0.00 0.00 0.00 100 1016.1
20260510013700 12 18 3.2 9.7 0.00 0.00 0.00 100 1016.2
20260510013600 12 32 4.8 9.7 0.00 0.00 0.00 100 1016.1
20260510013500 12 9 4.8 6.4 0.00 0.00 0.00 100 1016.2
20260510013400 12 37 6.4 6.4 0.00 0.00 0.00 100 1016.2
20260510013300 12 28 4.8 8.0 0.00 0.00 0.00 100 1016.2
20260510013213 12 28 4.8 8.0 0.00 0.00 0.00 100 1016.2
20260510013201 12 17 4.8 8.0 0.00 0.00 0.00 100 1016.2
20260510013100 12 47 6.4 8.0 0.00 0.00 0.00 100 1016.2
20260510013000 12 32 4.8 4.8 0.00 0.00 0.00 100 1016.3
20260510012900 12 5 3.2 4.8 0.00 0.00 0.00 100 1016.3
20260510012800 12 53 4.8 8.0 0.00 0.00 0.00 100 1016.3
20260510012713 12 53 4.8 8.0 0.00 0.00 0.00 100 1016.3
20260510012701 12 59 6.4 6.4 0.00 0.00 0.00 100 1016.2
20260510012601 12 40 4.8 4.8 0.00 0.00 0.00 100 1016.2
20260510012501 12 15 3.2 4.8 0.00 0.00 0.00 100 1016.2
20260510012401 12 44 4.8 4.8 0.00 0.00 0.00 100 1016.2
20260510012301 12 59 6.4 9.7 0.00 0.00 0.00 100 1016.3
20260510012213 12 59 6.4 9.7 0.00 0.00 0.00 100 1016.3
20260510012201 12 23 4.8 9.7 0.00 0.00 0.00 100 1016.3
20260510012101 12 51 4.8 9.7 0.00 0.00 0.00 100 1016.3
20260510012001 12 24 3.2 9.7 0.00 0.00 0.00 100 1016.3
20260510011901 12 44 4.8 6.4 0.00 0.00 0.00 100 1016.3
20260510011801 12 22 4.8 8.0 0.00 0.00 0.00 100 1016.3
20260510011713 12 22 4.8 8.0 0.00 0.00 0.00 100 1016.3
20260510011701 12 47 6.4 8.0 0.00 0.00 0.00 100 1016.3
20260510011600 12 41 4.8 8.0 0.00 0.00 0.00 100 1016.3
20260510011500 12 40 4.8 8.0 0.00 0.00 0.00 100 1016.3
20260510011401 12 17 4.8 8.0 0.00 0.00 0.00 100 1016.3
20260510011301 12 349 3.2 9.7 0.00 0.00 0.00 100 1016.2
20260510011213 12 349 3.2 9.7 0.00 0.00 0.00 100 1016.2
20260510011201 12 34 4.8 9.7 0.00 0.00 0.00 100 1016.3
20260510011101 12 36 3.2 9.7 0.00 0.00 0.00 100 1016.3
20260510011000 12 37 6.4 9.7 0.00 0.00 0.00 100 1016.3
20260510010900 12 32 6.4 6.4 0.00 0.00 0.00 100 1016.3
20260510010800 12 30 4.8 8.0 0.00 0.00 0.00 100 1016.3
20260510010712 12 30 4.8 8.0 0.00 0.00 0.00 100 1016.3
20260510010700 12 25 4.8 8.0 0.00 0.00 0.00 100 1016.3
20260510010600 12 30 4.8 8.0 0.00 0.00 0.00 100 1016.3
20260510010500 12 57 6.4 8.0 0.00 0.00 0.00 100 1016.3
20260510010400 12 38 6.4 6.4 0.00 0.00 0.00 100 1016.3
20260510010300 12 49 4.8 9.7 0.00 0.00 0.00 100 1016.3
20260510010212 12 49 4.8 9.7 0.00 0.00 0.00 100 1016.3
20260510010200 12 35 4.8 9.7 0.00 0.00 0.00 100 1016.3
20260510010001 12 63 3.2 9.7 0.00 0.00 0.00 100 1016.3
20260510005901 12 41 4.8 9.7 0.00 0.00 0.00 100 1016.3
20260510005801 12 45 4.8 8.0 0.00 0.00 0.00 100 1016.2
20260510005713 12 45 4.8 8.0 0.00 0.00 0.00 100 1016.2
20260510005701 12 32 4.8 8.0 0.00 0.00 0.00 100 1016.3
20260510005601 12 38 4.8 8.0 0.00 0.00 0.00 100 1016.2
20260510005501 12 355 6.4 8.0 0.00 0.00 0.00 100 1016.2
20260510005401 12 27 4.8 8.0 0.00 0.00 0.00 100 1016.3
20260510005301 12 33 4.8 9.7 0.00 0.00 0.00 100 1016.3
20260510005212 12 33 4.8 9.7 0.00 0.00 0.00 100 1016.3
20260510005200 12 53 4.8 9.7 0.00 0.00 0.00 100 1016.3
20260510005100 12 40 6.4 9.7 0.00 0.00 0.00 100 1016.3
20260510005000 12 9 4.8 4.8 0.00 0.00 0.00 100 1016.3
20260510004900 12 38 4.8 4.8 0.00 0.00 0.00 100 1016.3
20260510004800 12 30 6.4 11.3 0.00 0.00 0.00 100 1016.3
20260510004713 12 30 6.4 11.3 0.00 0.00 0.00 100 1016.3
20260510004701 12 22 4.8 8.0 0.00 0.00 0.00 100 1016.3
20260510004600 12 43 4.8 8.0 0.00 0.00 0.00 100 1016.3
20260510004501 12 43 1.6 8.0 0.00 0.00 0.00 100 1016.4
20260510004401 12 33 3.2 6.4 0.00 0.00 0.00 100 1016.4
20260510004301 12 48 3.2 9.7 0.00 0.00 0.00 100 1016.4
20260510004213 12 48 3.2 9.7 0.00 0.00 0.00 100 1016.4
20260510004201 12 28 4.8 9.7 0.00 0.00 0.00 100 1016.4
20260510004101 12 349 4.8 9.7 0.00 0.00 0.00 100 1016.3
20260510004001 12 20 4.8 9.7 0.00 0.00 0.00 100 1016.4
20260510003901 12 32 3.2 9.7 0.00 0.00 0.00 100 1016.4
20260510003800 12 34 4.8 8.0 0.00 0.00 0.00 100 1016.4
20260510003712 12 34 4.8 8.0 0.00 0.00 0.00 100 1016.4
20260510003700 12 51 4.8 8.0 0.00 0.00 0.00 100 1016.4
20260510003600 12 37 6.4 8.0 0.00 0.00 0.00 100 1016.4
20260510003501 12 26 3.2 8.0 0.00 0.00 0.00 100 1016.4
20260510003401 12 53 8.0 8.0 0.00 0.00 0.00 100 1016.4
20260510003301 12 28 4.8 6.4 0.00 0.00 0.00 100 1016.5
20260510003213 12 28 4.8 6.4 0.00 0.00 0.00 100 1016.5
20260510003201 12 13 4.8 6.4 0.00 0.00 0.00 100 1016.4
20260510003101 12 19 1.6 6.4 0.00 0.00 0.00 100 1016.5
20260510003000 12 39 4.8 6.4 0.00 0.00 0.00 100 1016.5
20260510002900 12 49 4.8 6.4 0.00 0.00 0.00 100 1016.4
20260510002800 12 17 4.8 6.4 0.00 0.00 0.00 100 1016.4
20260510002713 12 17 4.8 6.4 0.00 0.00 0.00 100 1016.4
20260510002701 12 36 3.2 6.4 0.00 0.00 0.00 100 1016.4
20260510002601 12 24 1.6 6.4 0.00 0.00 0.00 100 1016.4
20260510002501 12 51 4.8 6.4 0.00 0.00 0.00 100 1016.4
20260510002400 12 15 3.2 3.2 0.00 0.00 0.00 100 1016.4
20260510002301 12 33 4.8 4.8 0.00 0.00 0.00 100 1016.4
20260510002213 12 33 4.8 4.8 0.00 0.00 0.00 100 1016.4
20260510002200 12 36 3.2 4.8 0.00 0.00 0.00 100 1016.4
20260510002100 12 38 4.8 4.8 0.00 0.00 0.00 100 1016.4
20260510002000 12 28 1.6 4.8 0.00 0.00 0.00 100 1016.4
20260510001900 12 15 3.2 4.8 0.00 0.00 0.00 100 1016.3
20260510001801 12 17 4.8 8.0 0.00 0.00 0.00 100 1016.3
20260510001713 12 17 4.8 8.0 0.00 0.00 0.00 100 1016.3
20260510001701 12 9 4.8 8.0 0.00 0.00 0.00 100 1016.3
20260510001601 12 21 4.8 4.8 0.00 0.00 0.00 100 1016.3
20260510001501 12 22 1.6 3.2 0.00 0.00 0.00 100 1016.4
20260510001401 12 50 1.6 3.2 0.00 0.00 0.00 100 1016.4
20260510001301 12 22 3.2 6.4 0.00 0.00 0.00 100 1016.4
20260510001213 12 22 3.2 6.4 0.00 0.00 0.00 100 1016.4
20260510001201 12 40 3.2 6.4 0.00 0.00 0.00 100 1016.4
20260510001101 12 26 3.2 6.4 0.00 0.00 0.00 100 1016.4
20260510001001 12 48 4.8 6.4 0.00 0.00 0.00 100 1016.4
20260510000901 12 42 3.2 4.8 0.00 0.00 0.00 100 1016.4
20260510000801 12 5 4.8 9.7 0.00 0.00 0.00 100 1016.4
20260510000713 12 5 4.8 9.7 0.00 0.00 0.00 100 1016.4
20260510000700 12 30 3.2 9.7 0.00 0.00 0.00 100 1016.5
20260510000600 12 37 3.2 9.7 0.00 0.00 0.00 100 1016.4
20260510000500 12 65 4.8 9.7 0.00 0.00 0.00 100 1016.5
20260510000400 12 32 9.7 9.7 0.00 0.00 0.00 100 1016.5
20260510000300 12 64 1.6 8.0 0.00 0.00 0.00 100 1016.5
20260510000212 12 64 1.6 8.0 0.00 0.00 0.00 100 1016.5
20260510000200 12 40 4.8 8.0 0.00 0.00 0.00 100 1016.5
20260510000100 12 81 1.6 8.0 0.00 0.00 0.00 100 1016.5
20260510000000 12 21 1.6 3.2 0.00 0.00 0.00 100 1016.6
20260509235900 12 21 3.2 3.2 0.00 0.00 0.00 100 1016.6
20260509235801 12 22 3.2 3.2 0.00 0.00 0.00 100 1016.6
20260509235713 12 22 3.2 3.2 0.00 0.00 0.00 100 1016.6
20260509235701 12 45 1.6 3.2 0.00 0.00 0.00 100 1016.6
20260509235600 12 66 1.6 1.6 0.00 0.00 0.00 100 1016.6
20260509235501 12 79 0.0 1.6 0.00 0.00 0.00 100 1016.6
20260509235400 12 79 1.6 1.6 0.00 0.00 0.00 100 1016.6
20260509235300 12 79 0.0 1.6 0.00 0.00 0.00 100 1016.6
20260509235213 12 79 0.0 1.6 0.00 0.00 0.00 100 1016.6
20260509235201 12 79 0.0 1.6 0.00 0.00 0.00 100 1016.6
20260509235101 12 79 0.0 1.6 0.00 0.00 0.00 100 1016.6
20260509235001 12 79 0.0 1.6 0.00 0.00 0.00 100 1016.6
20260509234901 12 79 0.0 1.6 0.00 0.00 0.00 100 1016.5
20260509234801 12 79 1.6 4.8 0.00 0.00 0.00 100 1016.6
20260509234712 12 79 1.6 4.8 0.00 0.00 0.00 100 1016.6
20260509234700 12 46 3.2 4.8 0.00 0.00 0.00 100 1016.5
20260509234600 12 68 1.6 3.2 0.00 0.00 0.00 100 1016.6
20260509234500 12 78 3.2 3.2 0.00 0.00 0.00 100 1016.6
20260509234400 12 63 0.0 0.0 0.00 0.00 0.00 100 1016.6
20260509234302 12 63 0.0 0.0 0.00 0.00 0.00 100 1016.6
20260509234213 12 63 0.0 0.0 0.00 0.00 0.00 100 1016.6
20260509234200 12 63 0.0 0.0 0.00 0.00 0.00 100 1016.6
20260509234100 12 63 0.0 0.0 0.00 0.00 0.00 100 1016.7
20260509234000 12 63 0.0 0.0 0.00 0.00 0.00 100 1016.7
20260509233900 12 63 0.0 0.0 0.00 0.00 0.00 100 1016.6
20260509233800 12 63 0.0 4.8 0.00 0.00 0.00 100 1016.7
20260509233712 12 63 0.0 4.8 0.00 0.00 0.00 100 1016.7
20260509233700 12 63 1.6 4.8 0.00 0.00 0.00 100 1016.6
20260509233600 12 82 0.0 4.8 0.00 0.00 0.00 100 1016.6
20260509233501 12 82 3.2 4.8 0.00 0.00 0.00 100 1016.6
20260509233401 12 88 3.2 4.8 0.00 0.00 0.00 100 1016.6
20260509233301 12 60 0.0 4.8 0.00 0.00 0.00 100 1016.5
20260509233213 12 60 0.0 4.8 0.00 0.00 0.00 100 1016.5
20260509233201 12 60 0.0 4.8 0.00 0.00 0.00 100 1016.6
20260509233100 12 103 3.2 4.8 0.00 0.00 0.00 100 1016.6
20260509233000 12 79 4.8 4.8 0.00 0.00 0.00 100 1016.5
20260509232900 12 80 3.2 4.8 0.00 0.00 0.00 100 1016.6
20260509232800 12 64 3.2 4.8 0.00 0.00 0.00 100 1016.6
20260509232714 12 64 3.2 4.8 0.00 0.00 0.00 100 1016.6
20260509232702 12 67 0.0 4.8 0.00 0.00 0.00 100 1016.5
20260509232600 12 65 0.0 4.8 0.00 0.00 0.00 100 1016.6
20260509232500 12 78 0.0 4.8 0.00 0.00 0.00 100 1016.5
20260509232400 12 78 0.0 4.8 0.00 0.00 0.00 100 1016.5
20260509232300 12 30 0.0 9.7 0.00 0.00 0.00 100 1016.5
20260509232213 12 30 0.0 9.7 0.00 0.00 0.00 100 1016.5
20260509232201 12 45 4.8 9.7 0.00 0.00 0.00 100 1016.5
20260509232100 12 42 4.8 8.0 0.00 0.00 0.00 100 1016.5
20260509232000 12 38 1.6 8.0 0.00 0.00 0.00 100 1016.5
20260509231900 12 51 3.2 8.0 0.00 0.00 0.00 100 1016.5
20260509231800 12 18 1.6 8.0 0.00 0.00 0.00 100 1016.6
20260509231713 12 18 1.6 8.0 0.00 0.00 0.00 100 1016.6
20260509231701 12 27 4.8 6.4 0.00 0.00 0.00 100 1016.6
20260509231601 12 50 0.0 6.4 0.00 0.00 0.00 100 1016.6
20260509231501 12 85 4.8 6.4 0.00 0.00 0.00 100 1016.6
20260509231401 12 20 1.6 6.4 0.00 0.00 0.00 100 1016.6
20260509231301 12 30 3.2 9.7 0.00 0.00 0.00 100 1016.6
20260509231213 12 30 3.2 9.7 0.00 0.00 0.00 100 1016.6
20260509231201 12 55 3.2 4.8 0.00 0.00 0.00 100 1016.6
20260509231100 12 58 3.2 4.8 0.00 0.00 0.00 100 1016.6
20260509231000 12 349 1.6 4.8 0.00 0.00 0.00 100 1016.6
20260509230901 12 360 4.8 4.8 0.00 0.00 0.00 100 1016.7
20260509230801 12 19 1.6 8.0 0.00 0.00 0.00 100 1016.7
20260509230713 12 19 1.6 8.0 0.00 0.00 0.00 100 1016.7
20260509230701 12 19 3.2 8.0 0.00 0.00 0.00 100 1016.7
20260509230601 13 48 1.6 6.4 0.00 0.00 0.00 100 1016.6
20260509230501 13 34 0.0 6.4 0.00 0.00 0.00 100 1016.6
20260509230401 13 24 1.6 6.4 0.00 0.00 0.00 100 1016.6
20260509230301 13 36 4.8 6.4 0.00 0.00 0.00 100 1016.6
20260509230213 13 36 4.8 6.4 0.00 0.00 0.00 100 1016.6
20260509230201 13 36 3.2 6.4 0.00 0.00 0.00 100 1016.6
20260509230101 13 29 4.8 6.4 0.00 0.00 0.00 100 1016.6
20260509230001 13 355 4.8 6.4 0.00 0.00 0.00 100 1016.6
20260509225901 13 49 4.8 4.8 0.00 0.00 0.00 100 1016.6
20260509225801 13 20 3.2 11.3 0.00 0.00 0.00 100 1016.6
20260509225714 13 20 3.2 11.3 0.00 0.00 0.00 100 1016.6
20260509225702 13 69 4.8 11.3 0.00 0.00 0.00 100 1016.6
20260509225602 13 40 3.2 11.3 0.00 0.00 0.00 100 1016.6
20260509225502 13 31 8.0 8.0 0.00 0.00 0.00 100 1016.6
20260509225401 13 19 3.2 4.8 0.00 0.00 0.00 100 1016.6
20260509225300 13 27 3.2 14.5 0.00 0.00 0.00 100 1016.5
20260509225212 13 27 3.2 14.5 0.00 0.00 0.00 100 1016.5
20260509225200 13 30 4.8 14.5 0.00 0.00 0.00 100 1016.5
20260509225100 13 48 4.8 14.5 0.00 0.00 0.00 100 1016.5
20260509225000 13 36 11.3 11.3 0.00 0.00 0.00 100 1016.5
20260509224901 13 14 3.2 8.0 0.00 0.00 0.00 100 1016.5
20260509224801 13 61 6.4 16.1 0.00 0.00 0.00 100 1016.5
20260509224713 13 61 6.4 16.1 0.00 0.00 0.00 100 1016.5
20260509224701 13 78 4.8 16.1 0.00 0.00 0.00 100 1016.4
20260509224600 13 46 6.4 8.0 0.00 0.00 0.00 100 1016.4
20260509224500 13 17 3.2 8.0 0.00 0.00 0.00 100 1016.4
20260509224400 13 55 4.8 8.0 0.00 0.00 0.00 100 1016.4
20260509224300 13 18 1.6 14.5 0.00 0.00 0.00 100 1016.4
20260509224212 13 18 1.6 14.5 0.00 0.00 0.00 100 1016.4
20260509224200 13 51 3.2 14.5 0.00 0.00 0.00 100 1016.4
20260509224101 13 32 6.4 14.5 0.00 0.00 0.00 100 1016.4
20260509224001 13 61 4.8 9.7 0.00 0.00 0.00 100 1016.4
20260509223901 13 76 4.8 9.7 0.00 0.00 0.00 100 1016.4
20260509223801 13 24 3.2 8.0 0.00 0.00 0.00 100 1016.4
20260509223713 13 24 3.2 8.0 0.00 0.00 0.00 100 1016.4
20260509223701 13 40 4.8 8.0 0.00 0.00 0.00 100 1016.4
20260509223601 13 50 4.8 8.0 0.00 0.00 0.00 100 1016.4
20260509223500 13 76 4.8 8.0 0.00 0.00 0.00 100 1016.4
20260509223400 13 28 4.8 8.0 0.00 0.00 0.00 100 1016.4
20260509223300 13 33 3.2 11.3 0.00 0.00 0.00 100 1016.4
20260509223212 13 33 3.2 11.3 0.00 0.00 0.00 100 1016.4
20260509223200 13 13 8.0 9.7 0.00 0.00 0.00 100 1016.4
20260509223101 13 55 3.2 8.0 0.00 0.00 0.00 100 1016.4
20260509223000 13 13 3.2 8.0 0.00 0.00 0.00 100 1016.4
20260509222900 13 69 4.8 8.0 0.00 0.00 0.00 100 1016.4
20260509222800 13 78 6.4 8.0 0.00 0.00 0.00 100 1016.4
20260509222712 13 78 6.4 8.0 0.00 0.00 0.00 100 1016.4
20260509222700 13 59 1.6 8.0 0.00 0.00 0.00 100 1016.4
20260509222600 13 67 3.2 8.0 0.00 0.00 0.00 100 1016.4
20260509222501 13 34 3.2 8.0 0.00 0.00 0.00 100 1016.4
20260509222401 13 22 4.8 8.0 0.00 0.00 0.00 100 1016.4
20260509222301 13 81 3.2 8.0 0.00 0.00 0.00 100 1016.4
20260509222213 13 81 3.2 8.0 0.00 0.00 0.00 100 1016.4
20260509222201 13 77 3.2 8.0 0.00 0.00 0.00 100 1016.4
20260509222100 13 53 4.8 8.0 0.00 0.00 0.00 100 1016.4
20260509222000 13 43 4.8 6.4 0.00 0.00 0.00 100 1016.4
20260509221900 13 350 4.8 6.4 0.00 0.00 0.00 100 1016.5
20260509221800 13 59 1.6 9.7 0.00 0.00 0.00 100 1016.4
20260509221712 13 59 1.6 9.7 0.00 0.00 0.00 100 1016.4
20260509221700 13 51 1.6 9.7 0.00 0.00 0.00 100 1016.5
20260509221600 13 43 1.6 9.7 0.00 0.00 0.00 100 1016.4
20260509221500 13 76 3.2 9.7 0.00 0.00 0.00 100 1016.4
20260509221401 13 57 9.7 9.7 0.00 0.00 0.00 100 1016.4
20260509221301 13 46 3.2 9.7 0.00 0.00 0.00 100 1016.5
20260509221213 13 46 3.2 9.7 0.00 0.00 0.00 100 1016.5
20260509221201 13 55 8.0 9.7 0.00 0.00 0.00 100 1016.4
20260509221101 13 68 1.6 9.7 0.00 0.00 0.00 100 1016.4
20260509221001 13 34 6.4 9.7 0.00 0.00 0.00 100 1016.5
20260509220901 13 44 4.8 9.7 0.00 0.00 0.00 100 1016.4
20260509220800 13 338 3.2 12.9 0.00 0.00 0.00 100 1016.4
20260509220712 13 338 3.2 12.9 0.00 0.00 0.00 100 1016.4
20260509220700 13 23 3.2 12.9 0.00 0.00 0.00 100 1016.4
20260509220600 13 34 6.4 12.9 0.00 0.00 0.00 100 1016.4
20260509220500 13 63 4.8 12.9 0.00 0.00 0.00 100 1016.4
20260509220402 13 5 4.8 9.7 0.00 0.00 0.00 100 1016.4
20260509220302 13 52 8.0 11.3 0.00 0.00 0.00 100 1016.4
20260509220213 13 52 8.0 11.3 0.00 0.00 0.00 100 1016.4
20260509220201 13 53 4.8 11.3 0.00 0.00 0.00 100 1016.4
20260509220100 13 38 4.8 11.3 0.00 0.00 0.00 100 1016.4
20260509220000 13 26 6.4 9.7 0.00 0.00 0.00 100 1016.4
20260509215900 13 49 8.0 8.0 0.00 0.00 0.00 100 1016.4
20260509215800 13 24 6.4 14.5 0.00 0.00 0.00 100 1016.4
20260509215712 13 24 6.4 14.5 0.00 0.00 0.00 100 1016.4
20260509215700 13 37 4.8 14.5 0.00 0.00 0.00 100 1016.4
20260509215602 13 47 9.7 14.5 0.00 0.00 0.00 100 1016.4
20260509215501 13 343 9.7 9.7 0.00 0.00 0.00 100 1016.4
20260509215401 13 32 3.2 9.7 0.00 0.00 0.00 100 1016.4
20260509215300 13 342 4.8 11.3 0.00 0.00 0.00 100 1016.3
20260509215212 13 342 4.8 11.3 0.00 0.00 0.00 100 1016.3
20260509215200 13 87 4.8 11.3 0.00 0.00 0.00 100 1016.4
20260509215100 13 355 4.8 11.3 0.00 0.00 0.00 100 1016.3
20260509215000 13 9 9.7 11.3 0.00 0.00 0.00 100 1016.3
20260509214901 13 34 6.4 6.4 0.00 0.00 0.00 100 1016.3
20260509214801 13 360 9.7 12.9 0.00 0.00 0.00 100 1016.3
20260509214713 13 360 9.7 12.9 0.00 0.00 0.00 100 1016.3
20260509214701 13 31 3.2 12.9 0.00 0.00 0.00 100 1016.4
20260509214601 13 360 3.2 12.9 0.00 0.00 0.00 100 1016.4
20260509214501 13 55 0.0 12.9 0.00 0.00 0.00 100 1016.4
20260509214402 13 34 12.9 12.9 0.00 0.00 0.00 100 1016.4
20260509214302 13 14 3.2 9.7 0.00 0.00 0.00 100 1016.4
20260509214214 13 14 3.2 9.7 0.00 0.00 0.00 100 1016.4
20260509214201 13 74 6.4 9.7 0.00 0.00 0.00 100 1016.4
20260509214101 13 336 4.8 9.7 0.00 0.00 0.00 100 1016.4
20260509214001 13 360 3.2 9.7 0.00 0.00 0.00 100 1016.4
20260509213900 13 9 3.2 9.7 0.00 0.00 0.00 100 1016.5
20260509213800 13 22 4.8 14.5 0.00 0.00 0.00 100 1016.5
20260509213712 13 22 4.8 14.5 0.00 0.00 0.00 100 1016.5
20260509213700 13 49 9.7 14.5 0.00 0.00 0.00 100 1016.5
20260509213600 13 26 3.2 11.3 0.00 0.00 0.00 100 1016.4
20260509213500 13 49 6.4 11.3 0.00 0.00 0.00 100 1016.5
20260509213400 13 43 3.2 9.7 0.00 0.00 0.00 100 1016.4
20260509213300 13 94 6.4 11.3 0.00 0.00 0.00 100 1016.5
20260509213212 13 94 6.4 11.3 0.00 0.00 0.00 100 1016.5
20260509213200 13 40 4.8 9.7 0.00 0.00 0.00 100 1016.4
20260509213100 13 84 3.2 9.7 0.00 0.00 0.00 100 1016.5
20260509213000 13 38 9.7 9.7 0.00 0.00 0.00 2 1016.5
20260509212900 13 360 3.2 8.0 0.00 0.00 0.00 3 1016.4
20260509212802 13 5 4.8 12.9 0.00 0.00 0.00 4 1016.5
20260509212714 13 5 4.8 12.9 0.00 0.00 0.00 4 1016.5
20260509212701 13 40 9.7 12.9 0.00 0.00 0.00 4 1016.4
20260509212601 13 45 11.3 12.9 0.00 0.00 0.00 4 1016.4
20260509212501 13 55 8.0 8.0 0.00 0.00 0.00 5 1016.4
20260509212401 13 350 3.2 6.4 0.00 0.00 0.00 6 1016.4
20260509212305 13 42 3.2 9.7 0.00 0.00 0.00 6 1016.4
20260509212213 13 42 3.2 9.7 0.00 0.00 0.00 6 1016.4
20260509212201 13 54 4.8 9.7 0.00 0.00 0.00 7 1016.4
20260509212100 13 37 4.8 9.7 0.00 0.00 0.00 8 1016.4
20260509212000 13 15 3.2 9.7 0.00 0.00 0.00 8 1016.4
20260509211900 13 15 4.8 4.8 0.00 0.00 0.00 9 1016.4
20260509211801 13 32 3.2 16.1 0.00 0.00 0.00 11 1016.4
20260509211713 13 32 3.2 16.1 0.00 0.00 0.00 11 1016.4
20260509211701 13 360 4.8 16.1 0.00 0.00 0.00 11 1016.4
20260509211601 13 40 11.3 16.1 0.00 0.00 0.00 10 1016.4
20260509211501 13 61 4.8 16.1 0.00 0.00 0.00 10 1016.4
20260509211401 13 56 3.2 3.2 0.00 0.00 0.00 11 1016.4
20260509211301 13 35 3.2 9.7 0.00 0.00 0.00 12 1016.4
20260509211213 13 35 3.2 9.7 0.00 0.00 0.00 12 1016.4
20260509211201 13 40 1.6 9.7 0.00 0.00 0.00 13 1016.4
20260509211100 13 71 4.8 6.4 0.00 0.00 0.00 13 1016.4
20260509211000 13 29 4.8 4.8 0.00 0.00 0.00 14 1016.4
20260509210900 13 38 1.6 4.8 0.00 0.00 0.00 15 1016.4
20260509210800 13 51 1.6 11.3 0.00 0.00 0.00 15 1016.4
20260509210712 13 51 1.6 11.3 0.00 0.00 0.00 15 1016.4
20260509210700 13 36 8.0 11.3 0.00 0.00 0.00 17 1016.4
20260509210600 13 12 4.8 11.3 0.00 0.00 0.00 17 1016.4
20260509210500 13 27 4.8 11.3 0.00 0.00 0.00 18 1016.4
20260509210401 13 21 1.6 4.8 0.00 0.00 0.00 19 1016.4
20260509210301 13 39 4.8 8.0 0.00 0.00 0.00 19 1016.3
20260509210213 13 39 4.8 8.0 0.00 0.00 0.00 19 1016.3
20260509210201 13 46 3.2 6.4 0.00 0.00 0.00 20 1016.4
20260509210101 13 51 3.2 6.4 0.00 0.00 0.00 20 1016.3
20260509210001 13 46 3.2 6.4 0.00 0.00 0.00 21 1016.3
20260509205901 13 34 4.8 6.4 0.00 0.00 0.00 21 1016.3
20260509205801 13 59 0.0 11.3 0.00 0.00 0.00 22 1016.3
20260509205713 13 59 0.0 11.3 0.00 0.00 0.00 22 1016.3
20260509205701 13 360 4.8 11.3 0.00 0.00 0.00 23 1016.2
20260509205600 13 26 8.0 11.3 0.00 0.00 0.00 23 1016.2
20260509205500 13 35 4.8 4.8 0.00 0.00 0.00 24 1016.3
20260509205401 13 51 1.6 4.8 0.00 0.00 0.00 25 1016.3
20260509205301 13 42 6.4 8.0 0.00 0.00 0.00 25 1016.3
20260509205213 13 42 6.4 8.0 0.00 0.00 0.00 25 1016.3
20260509205201 13 30 3.2 6.4 0.00 0.00 0.00 26 1016.3
20260509205101 13 54 3.2 6.4 0.00 0.00 0.00 26 1016.2
20260509205001 13 57 6.4 6.4 0.00 0.00 0.00 27 1016.2
20260509204901 13 42 3.2 4.8 0.00 0.00 0.00 28 1016.2
20260509204801 13 58 6.4 12.9 0.00 0.00 0.00 29 1016.2
20260509204713 13 58 6.4 12.9 0.00 0.00 0.00 29 1016.2
20260509204701 13 13 3.2 9.7 0.00 0.00 0.00 29 1016.1
20260509204600 13 26 3.2 6.4 0.00 0.00 0.00 30 1016.1
20260509204500 13 75 3.2 4.8 0.00 0.00 0.00 31 1016.1
20260509204401 13 61 1.6 4.8 0.00 0.00 0.00 32 1016.1
20260509204301 13 49 4.8 11.3 0.00 0.00 0.00 33 1016.1
20260509204213 13 49 4.8 11.3 0.00 0.00 0.00 33 1016.1
20260509204201 13 96 4.8 11.3 0.00 0.00 0.00 34 1016.1
20260509204101 13 61 1.6 11.3 0.00 0.00 0.00 35 1016.1
20260509204001 13 55 3.2 11.3 0.00 0.00 0.00 36 1016.2
20260509203901 13 32 4.8 11.3 0.00 0.00 0.00 37 1016.1
20260509203801 13 41 6.4 14.5 0.00 0.00 0.00 37 1016.2
20260509203713 13 41 6.4 14.5 0.00 0.00 0.00 37 1016.2
20260509203701 13 88 4.8 14.5 0.00 0.00 0.00 39 1016.1
20260509203601 13 360 1.6 14.5 0.00 0.00 0.00 40 1016.2
20260509203501 13 13 8.0 14.5 0.00 0.00 0.00 41 1016.2
20260509203401 13 46 4.8 4.8 0.00 0.00 0.00 42 1016.1
20260509203301 13 53 1.6 9.7 0.00 0.00 0.00 43 1016.1
20260509203213 13 53 1.6 9.7 0.00 0.00 0.00 43 1016.1
20260509203201 13 46 4.8 9.7 0.00 0.00 0.00 43 1016.2
20260509203100 13 52 8.0 9.7 0.00 0.00 0.00 45 1016.1
20260509203000 13 46 3.2 8.0 0.00 0.00 0.00 45 1016.1
20260509202900 13 360 4.8 6.4 0.00 0.00 0.00 46 1016.1
20260509202800 13 51 3.2 6.4 0.00 0.00 0.00 47 1016.2
20260509202712 13 51 3.2 6.4 0.00 0.00 0.00 47 1016.2
20260509202700 13 347 4.8 6.4 0.00 0.00 0.00 47 1016.1
20260509202600 13 59 1.6 6.4 0.00 0.00 0.00 48 1016.1
20260509202500 13 51 3.2 6.4 0.00 0.00 0.00 49 1016.2
20260509202400 13 21 4.8 6.4 0.00 0.00 0.00 49 1016.2
20260509202300 13 75 4.8 6.4 0.00 0.00 0.00 49 1016.2
20260509202212 13 75 4.8 6.4 0.00 0.00 0.00 49 1016.2
20260509202200 13 64 3.2 6.4 0.00 0.00 0.00 50 1016.2
20260509202101 13 42 6.4 6.4 0.00 0.00 0.00 50 1016.2
20260509202001 13 5 3.2 6.4 0.00 0.00 0.00 51 1016.3
20260509201901 13 28 1.6 3.2 0.00 0.00 0.00 51 1016.2
20260509201801 13 38 4.8 8.0 0.00 0.00 0.00 51 1016.2
20260509201713 13 38 4.8 8.0 0.00 0.00 0.00 51 1016.2
20260509201700 13 46 1.6 8.0 0.00 0.00 0.00 52 1016.2
20260509201600 13 5 8.0 8.0 0.00 0.00 0.00 52 1016.2
20260509201501 13 64 3.2 6.4 0.00 0.00 0.00 52 1016.1
20260509201401 13 87 3.2 6.4 0.00 0.00 0.00 52 1016.2
20260509201301 13 34 3.2 6.4 0.00 0.00 0.00 52 1016.1
20260509201213 13 34 3.2 6.4 0.00 0.00 0.00 52 1016.1
20260509201201 13 42 4.8 6.4 0.00 0.00 0.00 53 1016.1
20260509201101 13 344 0.0 4.8 0.00 0.00 0.00 53 1016.1
20260509201000 13 17 4.8 4.8 0.00 0.00 0.00 53 1016.1
20260509200900 13 44 1.6 3.2 0.00 0.00 0.00 53 1016.1
20260509200800 13 46 1.6 6.4 0.00 0.00 0.00 53 1016.1
20260509200712 13 46 1.6 6.4 0.00 0.00 0.00 53 1016.1
20260509200700 13 49 4.8 6.4 0.00 0.00 0.00 53 1016.1
20260509200601 14 62 4.8 6.4 0.00 0.00 0.00 53 1016.1
20260509200501 14 40 1.6 4.8 0.00 0.00 0.00 54 1016.1
20260509200400 14 75 1.6 4.8 0.00 0.00 0.00 54 1016.1
20260509200300 14 47 3.2 9.7 0.00 0.00 0.00 54 1016.1
20260509200212 14 47 3.2 9.7 0.00 0.00 0.00 54 1016.1
20260509200200 14 90 0.0 9.7 0.00 0.00 0.00 54 1016.0
20260509200100 14 54 4.8 9.7 0.00 0.00 0.00 54 1016.0
20260509200000 14 83 6.4 9.7 0.00 0.00 0.00 54 1016.0
20260509195900 14 63 0.0 3.2 0.00 0.00 0.00 54 1016.0
20260509195800 14 69 1.6 6.4 0.00 0.00 0.00 54 1016.0
20260509195714 14 69 1.6 6.4 0.00 0.00 0.00 54 1016.0
20260509195702 14 92 3.2 6.4 0.00 0.00 0.00 55 1015.9
20260509195601 14 27 1.6 6.4 0.00 0.00 0.00 55 1016.0
20260509195500 14 58 4.8 6.4 0.00 0.00 0.00 55 1016.0
20260509195400 14 69 0.0 1.6 0.00 0.00 0.00 55 1016.0
20260509195300 14 69 0.0 6.4 0.00 0.00 0.00 55 1016.0
20260509195212 14 69 0.0 6.4 0.00 0.00 0.00 55 1016.0
20260509195200 14 21 0.0 6.4 0.00 0.00 0.00 55 1016.0
20260509195100 14 22 1.6 6.4 0.00 0.00 0.00 55 1016.1
20260509195001 14 59 4.8 6.4 0.00 0.00 0.00 55 1016.0
20260509194900 14 29 3.2 3.2 0.00 0.00 0.00 55 1016.0
20260509194800 14 21 1.6 9.7 0.00 0.00 0.00 55 1016.0
20260509194712 14 21 1.6 9.7 0.00 0.00 0.00 55 1016.0
20260509194700 14 52 4.8 9.7 0.00 0.00 0.00 55 1016.0
20260509194601 14 43 3.2 9.7 0.00 0.00 0.00 55 1016.0
20260509194501 14 37 4.8 9.7 0.00 0.00 0.00 55 1016.0
20260509194400 14 48 6.4 9.7 0.00 0.00 0.00 55 1016.0
20260509194300 14 52 4.8 6.4 0.00 0.00 0.00 55 1016.1
20260509194212 14 52 4.8 6.4 0.00 0.00 0.00 55 1016.1
20260509194200 14 63 4.8 6.4 0.00 0.00 0.00 55 1016.1
20260509194101 14 55 1.6 6.4 0.00 0.00 0.00 55 1016.1
20260509194001 14 72 4.8 6.4 0.00 0.00 0.00 55 1016.1
20260509193901 14 39 6.4 6.4 0.00 0.00 0.00 55 1016.1
20260509193801 14 83 1.6 8.0 0.00 0.00 0.00 55 1016.1
20260509193712 14 83 1.6 8.0 0.00 0.00 0.00 55 1016.1
20260509193700 14 32 3.2 8.0 0.00 0.00 0.00 55 1016.1
20260509193600 14 78 4.8 6.4 0.00 0.00 0.00 55 1016.1
20260509193500 14 14 4.8 6.4 0.00 0.00 0.00 55 1016.1
20260509193400 15 55 4.8 6.4 0.00 0.00 0.00 55 1016.0
20260509193301 15 49 4.8 11.3 0.00 0.00 0.00 55 1016.0
20260509193213 15 49 4.8 11.3 0.00 0.00 0.00 55 1016.0
20260509193201 15 40 4.8 11.3 0.00 0.00 0.00 55 1016.0
20260509193101 15 59 1.6 4.8 0.00 0.00 0.00 55 1015.9
20260509193000 15 49 4.8 4.8 0.00 0.00 0.00 55 1015.9
20260509192901 15 15 4.8 4.8 0.00 0.00 0.00 55 1016.0
20260509192801 15 32 4.8 9.7 0.00 0.00 0.00 55 1015.9
20260509192713 15 32 4.8 9.7 0.00 0.00 0.00 55 1015.9
20260509192701 15 37 3.2 9.7 0.00 0.00 0.00 55 1015.9
20260509192601 15 57 3.2 8.0 0.00 0.00 0.00 55 1015.9
20260509192501 15 39 4.8 8.0 0.00 0.00 0.00 55 1015.9
20260509192401 15 43 3.2 6.4 0.00 0.00 0.00 55 1015.8
20260509192300 15 37 4.8 8.0 0.00 0.00 0.00 55 1015.9
20260509192212 15 37 4.8 8.0 0.00 0.00 0.00 55 1015.9
20260509192200 15 51 4.8 8.0 0.00 0.00 0.00 55 1015.8
20260509192101 15 25 4.8 6.4 0.00 0.00 0.00 55 1015.8
20260509192001 15 34 6.4 6.4 0.00 0.00 0.00 55 1015.8
20260509191901 15 34 1.6 4.8 0.00 0.00 0.00 55 1015.8
20260509191801 15 17 1.6 8.0 0.00 0.00 0.00 55 1015.8
20260509191713 15 17 1.6 8.0 0.00 0.00 0.00 55 1015.8
20260509191701 15 17 3.2 8.0 0.00 0.00 0.00 55 1015.8
20260509191600 15 40 3.2 8.0 0.00 0.00 0.00 55 1015.7
20260509191500 15 63 3.2 6.4 0.00 0.00 0.00 55 1015.7
20260509191400 15 51 4.8 6.4 0.00 0.00 0.00 55 1015.7
20260509191300 15 50 4.8 11.3 0.00 0.00 0.00 55 1015.8
20260509191212 15 50 4.8 11.3 0.00 0.00 0.00 55 1015.8
20260509191200 15 32 4.8 11.3 0.00 0.00 0.00 55 1015.7
20260509191101 15 41 6.4 11.3 0.00 0.00 0.00 55 1015.8
20260509191001 15 51 8.0 8.0 0.00 0.00 0.00 55 1015.8
20260509190900 15 35 4.8 8.0 0.00 0.00 0.00 55 1015.8
20260509190800 15 15 4.8 11.3 0.00 0.00 0.00 55 1015.9
20260509190712 15 15 4.8 11.3 0.00 0.00 0.00 55 1015.9
20260509190700 15 19 4.8 11.3 0.00 0.00 0.00 55 1015.9
20260509190600 15 43 11.3 11.3 0.00 0.00 0.00 55 1015.8
20260509190500 15 51 4.8 9.7 0.00 0.00 0.00 55 1015.8
20260509190401 15 51 4.8 4.8 0.00 0.00 0.00 55 1015.8
20260509190301 15 42 4.8 11.3 0.00 0.00 0.00 55 1015.9
20260509190213 15 42 4.8 11.3 0.00 0.00 0.00 55 1015.9
20260509190201 15 51 6.4 11.3 0.00 0.00 0.00 55 1015.9
20260509190100 15 60 1.6 11.3 0.00 0.00 0.00 54 1015.9
20260509190000 15 46 6.4 11.3 0.00 0.00 0.00 54 1015.9
20260509185900 15 360 4.8 11.3 0.00 0.00 0.00 55 1015.9
20260509185800 15 40 6.4 8.0 0.00 0.00 0.00 55 1015.9
20260509185713 15 40 6.4 8.0 0.00 0.00 0.00 55 1015.9
20260509185701 15 44 1.6 8.0 0.00 0.00 0.00 54 1015.9
20260509185601 15 61 3.2 8.0 0.00 0.00 0.00 54 1016.0
20260509185501 15 125 4.8 8.0 0.00 0.00 0.00 54 1015.9
20260509185401 15 40 3.2 4.8 0.00 0.00 0.00 54 1015.9
20260509185301 15 30 3.2 9.7 0.00 0.00 0.00 54 1015.9
20260509185213 15 30 3.2 9.7 0.00 0.00 0.00 54 1015.9
20260509185201 15 28 6.4 9.7 0.00 0.00 0.00 54 1015.9
20260509185101 15 43 9.7 9.7 0.00 0.00 0.00 54 1015.9
20260509185001 15 54 4.8 8.0 0.00 0.00 0.00 54 1015.8
20260509184901 15 44 6.4 6.4 0.00 0.00 0.00 54 1015.9
20260509184801 15 50 3.2 16.1 0.00 0.00 0.00 54 1015.9
20260509184712 15 50 3.2 16.1 0.00 0.00 0.00 54 1015.9
20260509184700 15 28 1.6 16.1 0.00 0.00 0.00 54 1015.9
20260509184601 15 23 3.2 16.1 0.00 0.00 0.00 54 1015.9
20260509184501 15 55 4.8 16.1 0.00 0.00 0.00 54 1015.9
20260509184401 15 46 6.4 16.1 0.00 0.00 0.00 54 1015.9
20260509184301 16 340 4.8 11.3 0.00 0.00 0.00 54 1015.9
20260509184214 16 340 4.8 11.3 0.00 0.00 0.00 54 1015.9
20260509184201 16 55 3.2 11.3 0.00 0.00 0.00 54 1015.9
20260509184101 16 19 3.2 11.3 0.00 0.00 0.00 54 1015.9
20260509184001 16 59 11.3 11.3 0.00 0.00 0.00 54 1015.9
20260509183901 16 43 3.2 4.8 0.00 0.00 0.00 54 1015.9
20260509183801 16 43 4.8 12.9 0.00 0.00 0.00 53 1015.9
20260509183713 16 43 4.8 12.9 0.00 0.00 0.00 53 1015.9
20260509183701 16 43 8.0 12.9 0.00 0.00 0.00 53 1015.9
20260509183601 16 360 6.4 12.9 0.00 0.00 0.00 53 1015.9
20260509183501 16 30 4.8 8.0 0.00 0.00 0.00 53 1015.8
20260509183401 16 24 4.8 8.0 0.00 0.00 0.00 53 1015.9
20260509183301 16 17 4.8 16.1 0.00 0.00 0.00 53 1015.9
20260509183213 16 17 4.8 16.1 0.00 0.00 0.00 53 1015.9
20260509183201 16 42 4.8 16.1 0.00 0.00 0.00 53 1015.9
20260509183101 16 56 4.8 16.1 0.00 0.00 0.00 53 1015.9
20260509183000 16 18 8.0 16.1 0.00 0.00 0.00 53 1015.9
20260509182900 16 29 4.8 6.4 0.00 0.00 0.00 53 1015.9
20260509182800 16 45 9.7 16.1 0.00 0.00 0.00 53 1015.9
20260509182712 16 45 9.7 16.1 0.00 0.00 0.00 53 1015.9
20260509182700 16 57 9.7 16.1 0.00 0.00 0.00 53 1015.9
20260509182600 16 53 4.8 11.3 0.00 0.00 0.00 53 1015.9
20260509182500 16 10 4.8 11.3 0.00 0.00 0.00 53 1015.9
20260509182400 16 94 6.4 6.4 0.00 0.00 0.00 53 1015.8
20260509182300 16 91 9.7 9.7 0.00 0.00 0.00 53 1015.9
20260509182213 16 91 9.7 9.7 0.00 0.00 0.00 53 1015.9
20260509182200 16 82 6.4 9.7 0.00 0.00 0.00 53 1015.8
20260509182100 16 24 1.6 9.7 0.00 0.00 0.00 53 1015.8
20260509182000 16 59 4.8 8.0 0.00 0.00 0.00 53 1015.7
20260509181900 16 71 3.2 8.0 0.00 0.00 0.00 53 1015.8
20260509181801 16 19 4.8 8.0 0.00 0.00 0.00 53 1015.7
20260509181713 16 19 4.8 8.0 0.00 0.00 0.00 53 1015.7
20260509181701 16 73 4.8 8.0 0.00 0.00 0.00 53 1015.6
20260509181601 16 38 4.8 8.0 0.00 0.00 0.00 53 1015.7
20260509181501 16 45 6.4 8.0 0.00 0.00 0.00 53 1015.7
20260509181401 16 54 3.2 4.8 0.00 0.00 0.00 53 1015.7
20260509181300 16 59 4.8 11.3 0.00 0.00 0.00 53 1015.7
20260509181212 16 59 4.8 11.3 0.00 0.00 0.00 53 1015.7
20260509181200 16 55 6.4 11.3 0.00 0.00 0.00 53 1015.7
20260509181100 16 67 1.6 8.0 0.00 0.00 0.00 53 1015.7
20260509181000 16 56 6.4 8.0 0.00 0.00 0.00 53 1015.6
20260509180900 16 5 3.2 6.4 0.00 0.00 0.00 53 1015.6
20260509180800 16 49 6.4 14.5 0.00 0.00 0.00 53 1015.6
20260509180712 16 49 6.4 14.5 0.00 0.00 0.00 53 1015.6
20260509180700 16 58 9.7 14.5 0.00 0.00 0.00 53 1015.6
20260509180600 16 41 6.4 14.5 0.00 0.00 0.00 53 1015.7
20260509180500 16 12 3.2 14.5 0.00 0.00 0.00 53 1015.7
20260509180400 16 27 12.9 14.5 0.00 0.00 0.00 53 1015.6
20260509180300 16 61 4.8 16.1 0.00 0.00 0.00 53 1015.7
20260509180212 16 61 4.8 16.1 0.00 0.00 0.00 53 1015.7
20260509180200 16 38 4.8 16.1 0.00 0.00 0.00 53 1015.6
20260509180100 16 76 9.7 16.1 0.00 0.00 0.00 53 1015.7
20260509180000 16 41 3.2 16.1 0.00 0.00 0.00 53 1015.7
20260509175901 16 31 4.8 12.9 0.00 0.00 0.00 53 1015.7
20260509175801 16 23 8.0 11.3 0.00 0.00 0.00 53 1015.7
20260509175712 16 23 8.0 11.3 0.00 0.00 0.00 53 1015.7
20260509175700 16 42 6.4 11.3 0.00 0.00 0.00 53 1015.7
20260509175600 16 355 4.8 11.3 0.00 0.00 0.00 53 1015.7
20260509175500 16 38 4.8 11.3 0.00 0.00 0.00 53 1015.7
20260509175400 16 34 6.4 11.3 0.00 0.00 0.00 53 1015.6
20260509175300 16 78 6.4 12.9 0.00 0.00 0.00 53 1015.6
20260509175213 16 78 6.4 12.9 0.00 0.00 0.00 53 1015.6
20260509175201 16 28 1.6 12.9 0.00 0.00 0.00 53 1015.6
20260509175101 17 51 9.7 12.9 0.00 0.00 0.00 53 1015.6
20260509175001 17 31 4.8 12.9 0.00 0.00 0.00 53 1015.5
20260509174901 17 44 3.2 4.8 0.00 0.00 0.00 53 1015.6
20260509174801 17 5 4.8 16.1 0.00 0.00 0.00 53 1015.6
20260509174712 17 5 4.8 16.1 0.00 0.00 0.00 53 1015.6
20260509174700 17 38 11.3 16.1 0.00 0.00 0.00 52 1015.6
20260509174601 17 63 4.8 16.1 0.00 0.00 0.00 52 1015.6
20260509174500 17 344 8.0 16.1 0.00 0.00 0.00 52 1015.6
20260509174400 17 15 4.8 16.1 0.00 0.00 0.00 52 1015.6
20260509174300 17 355 4.8 14.5 0.00 0.00 0.00 52 1015.5
20260509174212 17 355 4.8 14.5 0.00 0.00 0.00 52 1015.5
20260509174201 17 28 8.0 14.5 0.00 0.00 0.00 52 1015.5
20260509174101 17 25 9.7 14.5 0.00 0.00 0.00 52 1015.5
20260509174001 17 45 11.3 14.5 0.00 0.00 0.00 52 1015.5
20260509173901 17 19 9.7 11.3 0.00 0.00 0.00 51 1015.4
20260509173801 17 21 4.8 20.9 0.00 0.00 0.00 51 1015.4
20260509173713 17 21 4.8 20.9 0.00 0.00 0.00 51 1015.4
20260509173701 17 68 4.8 20.9 0.00 0.00 0.00 51 1015.4
20260509173601 17 343 6.4 20.9 0.00 0.00 0.00 51 1015.4
20260509173501 17 41 11.3 16.1 0.00 0.00 0.00 51 1015.4
20260509173401 17 11 6.4 11.3 0.00 0.00 0.00 51 1015.4
20260509173300 17 13 6.4 16.1 0.00 0.00 0.00 51 1015.4
20260509173212 17 13 6.4 16.1 0.00 0.00 0.00 51 1015.4
20260509173200 17 19 9.7 16.1 0.00 0.00 0.00 50 1015.4
20260509173101 17 69 3.2 16.1 0.00 0.00 0.00 50 1015.4
20260509173001 17 28 16.1 16.1 0.00 0.00 0.00 50 1015.4
20260509172901 17 39 6.4 11.3 0.00 0.00 0.00 50 1015.4
20260509172800 17 30 8.0 19.3 0.00 0.00 0.00 50 1015.4
20260509172712 17 30 8.0 19.3 0.00 0.00 0.00 50 1015.4
20260509172700 17 27 8.0 19.3 0.00 0.00 0.00 50 1015.3
20260509172600 18 11 8.0 19.3 0.00 0.00 0.00 50 1015.3
20260509172500 18 343 4.8 19.3 0.00 0.00 0.00 50 1015.4
20260509172401 18 340 16.1 16.1 0.00 0.00 0.00 50 1015.4
20260509172301 18 328 6.4 16.1 0.00 0.00 0.00 50 1015.4
20260509172213 18 328 6.4 16.1 0.00 0.00 0.00 50 1015.4
20260509172201 18 38 6.4 16.1 0.00 0.00 0.00 50 1015.4
20260509172101 18 25 4.8 12.9 0.00 0.00 0.00 50 1015.4
20260509172001 18 321 4.8 12.9 0.00 0.00 0.00 50 1015.4
20260509171901 18 33 6.4 12.9 0.00 0.00 0.00 50 1015.4
20260509171801 18 30 16.1 16.1 0.00 0.00 0.00 50 1015.4
20260509171713 18 30 16.1 16.1 0.00 0.00 0.00 50 1015.4
20260509171701 18 44 4.8 12.9 0.00 0.00 0.00 50 1015.5
20260509171601 18 31 4.8 9.7 0.00 0.00 0.00 50 1015.4
20260509171500 18 26 1.6 9.7 0.00 0.00 0.00 50 1015.5
20260509171400 18 33 4.8 9.7 0.00 0.00 0.00 51 1015.4
20260509171300 18 70 11.3 19.3 0.00 0.00 0.00 50 1015.4
20260509171213 18 70 11.3 19.3 0.00 0.00 0.00 50 1015.4
20260509171201 18 9 6.4 19.3 0.00 0.00 0.00 50 1015.5
20260509171101 18 80 11.3 19.3 0.00 0.00 0.00 50 1015.4
20260509171001 18 26 12.9 14.5 0.00 0.00 0.00 50 1015.5
20260509170901 18 36 9.7 14.5 0.00 0.00 0.00 50 1015.4
20260509170800 18 46 8.0 14.5 0.00 0.00 0.00 51 1015.4
20260509170712 18 46 8.0 14.5 0.00 0.00 0.00 51 1015.4
20260509170700 18 59 4.8 14.5 0.00 0.00 0.00 51 1015.4
20260509170600 18 17 3.2 11.3 0.00 0.00 0.00 51 1015.4
20260509170500 18 51 8.0 11.3 0.00 0.00 0.00 51 1015.4
20260509170400 18 28 8.0 11.3 0.00 0.00 0.00 51 1015.3
20260509170300 18 36 1.6 12.9 0.00 0.00 0.00 51 1015.4
20260509170212 18 36 1.6 12.9 0.00 0.00 0.00 51 1015.4
20260509170200 18 340 4.8 12.9 0.00 0.00 0.00 51 1015.4
20260509170001 18 360 4.8 9.7 0.00 0.00 0.00 51 1015.4
20260509165901 18 109 4.8 9.7 0.00 0.00 0.00 52 1015.4
20260509165801 18 22 3.2 16.1 0.00 0.00 0.00 51 1015.5
20260509165713 18 22 3.2 16.1 0.00 0.00 0.00 51 1015.5
20260509165701 18 11 6.4 16.1 0.00 0.00 0.00 51 1015.5
20260509165600 18 60 12.9 16.1 0.00 0.00 0.00 51 1015.5
20260509165500 18 37 3.2 16.1 0.00 0.00 0.00 51 1015.5
20260509165400 19 38 11.3 16.1 0.00 0.00 0.00 51 1015.5
20260509165301 19 38 6.4 14.5 0.00 0.00 0.00 51 1015.6
20260509165213 19 38 6.4 14.5 0.00 0.00 0.00 51 1015.6
20260509165201 19 346 4.8 14.5 0.00 0.00 0.00 51 1015.5
20260509165100 19 24 8.0 14.5 0.00 0.00 0.00 51 1015.5
20260509165000 19 74 6.4 14.5 0.00 0.00 0.00 50 1015.5
20260509164900 19 70 14.5 14.5 0.00 0.00 0.00 51 1015.5
20260509164801 19 40 6.4 9.7 0.00 0.00 0.00 51 1015.6
20260509164713 19 40 6.4 9.7 0.00 0.00 0.00 51 1015.6
20260509164701 19 57 4.8 9.7 0.00 0.00 0.00 51 1015.6
20260509164600 19 5 3.2 9.7 0.00 0.00 0.00 51 1015.6
20260509164500 19 63 9.7 9.7 0.00 0.00 0.00 51 1015.6
20260509164400 19 32 6.4 8.0 0.00 0.00 0.00 51 1015.6
20260509164301 19 28 4.8 17.7 0.00 0.00 0.00 51 1015.6
20260509164213 19 28 4.8 17.7 0.00 0.00 0.00 51 1015.6
20260509164201 19 82 4.8 17.7 0.00 0.00 0.00 51 1015.7
20260509164101 19 53 4.8 17.7 0.00 0.00 0.00 51 1015.6
20260509164001 19 60 4.8 17.7 0.00 0.00 0.00 51 1015.6
20260509163901 19 51 6.4 17.7 0.00 0.00 0.00 50 1015.6
20260509163801 19 19 3.2 20.9 0.00 0.00 0.00 50 1015.7
20260509163713 19 19 3.2 20.9 0.00 0.00 0.00 50 1015.7
20260509163701 19 13 8.0 20.9 0.00 0.00 0.00 50 1015.6
20260509163601 19 42 16.1 20.9 0.00 0.00 0.00 50 1015.6
20260509163501 19 50 11.3 20.9 0.00 0.00 0.00 51 1015.6
20260509163401 19 22 3.2 9.7 0.00 0.00 0.00 51 1015.6
20260509163301 19 36 4.8 16.1 0.00 0.00 0.00 51 1015.6
20260509163213 19 36 4.8 16.1 0.00 0.00 0.00 51 1015.6
20260509163201 19 78 16.1 16.1 0.00 0.00 0.00 51 1015.6
20260509163101 19 328 4.8 9.7 0.00 0.00 0.00 50 1015.6
20260509163000 19 36 4.8 9.7 0.00 0.00 0.00 50 1015.6
20260509162900 19 32 8.0 9.7 0.00 0.00 0.00 50 1015.5
20260509162800 19 43 4.8 16.1 0.00 0.00 0.00 50 1015.6
20260509162712 19 43 4.8 16.1 0.00 0.00 0.00 50 1015.6
20260509162700 19 104 3.2 16.1 0.00 0.00 0.00 50 1015.6
20260509162600 19 16 8.0 16.1 0.00 0.00 0.00 50 1015.6
20260509162500 19 114 11.3 16.1 0.00 0.00 0.00 50 1015.6
20260509162400 19 47 4.8 8.0 0.00 0.00 0.00 50 1015.6
20260509162300 19 45 4.8 16.1 0.00 0.00 0.00 50 1015.6
20260509162213 19 45 4.8 16.1 0.00 0.00 0.00 50 1015.6
20260509162201 19 80 8.0 16.1 0.00 0.00 0.00 50 1015.5
20260509162101 19 32 4.8 12.9 0.00 0.00 0.00 50 1015.5
20260509162001 19 19 4.8 12.9 0.00 0.00 0.00 50 1015.5
20260509161901 19 340 11.3 11.3 0.00 0.00 0.00 50 1015.5
20260509161801 19 355 16.1 19.3 0.00 0.00 0.00 50 1015.5
20260509161713 19 355 16.1 19.3 0.00 0.00 0.00 50 1015.5
20260509161700 19 61 16.1 16.1 0.00 0.00 0.00 50 1015.5
20260509161600 19 23 6.4 14.5 0.00 0.00 0.00 50 1015.5
20260509161500 19 42 6.4 14.5 0.00 0.00 0.00 50 1015.5
20260509161401 19 53 4.8 14.5 0.00 0.00 0.00 50 1015.5
20260509161301 19 32 8.0 17.7 0.00 0.00 0.00 50 1015.5
20260509161213 19 32 8.0 17.7 0.00 0.00 0.00 50 1015.5
20260509161200 19 54 11.3 17.7 0.00 0.00 0.00 50 1015.6
20260509161100 19 36 16.1 17.7 0.00 0.00 0.00 50 1015.5
20260509161000 19 5 11.3 11.3 0.00 0.00 0.00 50 1015.6
20260509160900 19 69 9.7 11.3 0.00 0.00 0.00 50 1015.6
20260509160800 19 61 14.5 16.1 0.00 0.00 0.00 50 1015.6
20260509160713 19 61 14.5 16.1 0.00 0.00 0.00 50 1015.6
20260509160701 19 63 4.8 16.1 0.00 0.00 0.00 49 1015.6
20260509160601 19 74 6.4 16.1 0.00 0.00 0.00 49 1015.6
20260509160501 20 20 8.0 14.5 0.00 0.00 0.00 50 1015.6
20260509160401 20 348 9.7 9.7 0.00 0.00 0.00 50 1015.6
20260509160301 20 40 11.3 16.1 0.00 0.00 0.00 50 1015.6
20260509160213 20 40 11.3 16.1 0.00 0.00 0.00 50 1015.6
20260509160201 20 65 12.9 16.1 0.00 0.00 0.00 50 1015.6
20260509160100 20 42 6.4 16.1 0.00 0.00 0.00 50 1015.6
20260509160001 20 21 6.4 16.1 0.00 0.00 0.00 49 1015.6
20260509155901 20 19 8.0 16.1 0.00 0.00 0.00 49 1015.6
20260509155801 20 342 4.8 16.1 0.00 0.00 0.00 49 1015.7
20260509155713 20 342 4.8 16.1 0.00 0.00 0.00 49 1015.7
20260509155701 20 50 8.0 16.1 0.00 0.00 0.00 49 1015.7
20260509155601 20 32 8.0 11.3 0.00 0.00 0.00 49 1015.6
20260509155501 20 42 11.3 11.3 0.00 0.00 0.00 49 1015.7
20260509155401 20 27 8.0 8.0 0.00 0.00 0.00 50 1015.7
20260509155300 20 42 8.0 12.9 0.00 0.00 0.00 50 1015.7
20260509155212 20 42 8.0 12.9 0.00 0.00 0.00 50 1015.7
20260509155200 20 59 4.8 12.9 0.00 0.00 0.00 50 1015.7
20260509155100 20 74 12.9 12.9 0.00 0.00 0.00 50 1015.7
20260509155000 20 55 9.7 11.3 0.00 0.00 0.00 50 1015.7
20260509154900 20 26 4.8 8.0 0.00 0.00 0.00 50 1015.7
20260509154800 20 33 4.8 17.7 0.00 0.00 0.00 50 1015.7
20260509154712 20 33 4.8 17.7 0.00 0.00 0.00 50 1015.7
20260509154700 20 17 8.0 16.1 0.00 0.00 0.00 50 1015.7
20260509154600 20 42 16.1 16.1 0.00 0.00 0.00 50 1015.7
20260509154501 20 33 8.0 11.3 0.00 0.00 0.00 50 1015.7
20260509154401 20 86 8.0 11.3 0.00 0.00 0.00 50 1015.8
20260509154301 20 51 11.3 16.1 0.00 0.00 0.00 50 1015.8
20260509154212 20 51 11.3 16.1 0.00 0.00 0.00 50 1015.8
20260509154200 20 34 4.8 16.1 0.00 0.00 0.00 50 1015.8
20260509154100 20 53 14.5 16.1 0.00 0.00 0.00 50 1015.9
20260509154000 20 73 11.3 12.9 0.00 0.00 0.00 50 1015.8
20260509153900 20 74 4.8 12.9 0.00 0.00 0.00 50 1015.8
20260509153800 20 35 11.3 17.7 0.00 0.00 0.00 50 1015.8
20260509153712 20 35 11.3 17.7 0.00 0.00 0.00 50 1015.8
20260509153700 20 68 6.4 17.7 0.00 0.00 0.00 50 1015.8
20260509153600 20 62 6.4 17.7 0.00 0.00 0.00 50 1015.8
20260509153500 20 58 16.1 17.7 0.00 0.00 0.00 50 1015.8
20260509153400 20 5 4.8 11.3 0.00 0.00 0.00 50 1015.8
20260509153301 20 53 4.8 16.1 0.00 0.00 0.00 50 1015.8
20260509153213 20 53 4.8 16.1 0.00 0.00 0.00 50 1015.8
20260509153201 20 60 4.8 16.1 0.00 0.00 0.00 50 1015.9
20260509153100 20 46 6.4 16.1 0.00 0.00 0.00 49 1015.9
20260509153002 20 26 9.7 16.1 0.00 0.00 0.00 50 1015.9
20260509152901 20 23 6.4 6.4 0.00 0.00 0.00 50 1015.9
20260509152801 20 9 6.4 16.1 0.00 0.00 0.00 49 1015.9
20260509152713 20 9 6.4 16.1 0.00 0.00 0.00 49 1015.9
20260509152701 20 347 12.9 16.1 0.00 0.00 0.00 49 1016.0
20260509152601 20 66 4.8 16.1 0.00 0.00 0.00 49 1016.0
20260509152500 20 74 12.9 16.1 0.00 0.00 0.00 49 1016.0
20260509152400 20 45 6.4 16.1 0.00 0.00 0.00 49 1016.0
20260509152305 20 87 6.4 16.1 0.00 0.00 0.00 49 1016.0
20260509152213 20 87 6.4 16.1 0.00 0.00 0.00 49 1016.0
20260509152201 20 94 11.3 16.1 0.00 0.00 0.00 49 1016.0
20260509152101 20 34 4.8 16.1 0.00 0.00 0.00 49 1016.0
20260509152001 20 28 9.7 16.1 0.00 0.00 0.00 50 1016.0
20260509151901 20 49 12.9 12.9 0.00 0.00 0.00 50 1016.1
20260509151801 20 24 4.8 16.1 0.00 0.00 0.00 50 1016.0
20260509151713 20 24 4.8 16.1 0.00 0.00 0.00 50 1016.0
20260509151701 20 9 4.8 16.1 0.00 0.00 0.00 50 1016.1
20260509151601 20 350 4.8 16.1 0.00 0.00 0.00 50 1016.1
20260509151501 20 44 14.5 16.1 0.00 0.00 0.00 50 1016.1
20260509151401 20 34 11.3 16.1 0.00 0.00 0.00 50 1016.1
20260509151301 20 80 3.2 19.3 0.00 0.00 0.00 50 1016.0
20260509151213 20 80 3.2 19.3 0.00 0.00 0.00 50 1016.0
20260509151201 20 323 4.8 19.3 0.00 0.00 0.00 50 1016.0
20260509151100 20 49 17.7 19.3 0.00 0.00 0.00 50 1016.0
20260509151000 20 67 11.3 16.1 0.00 0.00 0.00 49 1016.0
20260509150900 20 12 6.4 11.3 0.00 0.00 0.00 49 1016.0
20260509150800 20 9 4.8 17.7 0.00 0.00 0.00 49 1016.0
20260509150712 20 9 4.8 17.7 0.00 0.00 0.00 49 1016.0
20260509150700 20 9 17.7 17.7 0.00 0.00 0.00 49 1016.1
20260509150600 20 23 16.1 16.1 0.00 0.00 0.00 49 1016.1
20260509150500 20 44 8.0 14.5 0.00 0.00 0.00 48 1016.1
20260509150400 20 51 14.5 14.5 0.00 0.00 0.00 49 1016.1
20260509150300 20 50 16.1 16.1 0.00 0.00 0.00 48 1016.1
20260509150212 20 50 16.1 16.1 0.00 0.00 0.00 48 1016.1
20260509150200 20 55 14.5 16.1 0.00 0.00 0.00 49 1016.1
20260509150001 20 23 6.4 16.1 0.00 0.00 0.00 48 1016.0
20260509145901 20 9 11.3 16.1 0.00 0.00 0.00 48 1016.0
20260509145801 20 355 12.9 16.1 0.00 0.00 0.00 49 1016.0
20260509145712 20 355 12.9 16.1 0.00 0.00 0.00 49 1016.0
20260509145700 20 360 8.0 16.1 0.00 0.00 0.00 49 1015.9
20260509145600 20 33 8.0 16.1 0.00 0.00 0.00 49 1015.9
20260509145501 20 51 8.0 16.1 0.00 0.00 0.00 49 1015.9
20260509145401 20 71 11.3 16.1 0.00 0.00 0.00 48 1015.9
20260509145301 20 42 11.3 14.5 0.00 0.00 0.00 48 1015.9
20260509145213 20 42 11.3 14.5 0.00 0.00 0.00 48 1015.9
20260509145201 20 9 8.0 14.5 0.00 0.00 0.00 49 1016.0
20260509145100 20 49 6.4 14.5 0.00 0.00 0.00 49 1015.9
20260509145000 20 20 4.8 12.9 0.00 0.00 0.00 49 1015.8
20260509144900 20 78 4.8 9.7 0.00 0.00 0.00 49 1015.8
20260509144801 20 48 4.8 17.7 0.00 0.00 0.00 49 1015.9
20260509144713 20 48 4.8 17.7 0.00 0.00 0.00 49 1015.9
20260509144701 20 53 14.5 17.7 0.00 0.00 0.00 48 1015.8
20260509144600 20 22 14.5 17.7 0.00 0.00 0.00 48 1015.8
20260509144500 20 18 8.0 17.7 0.00 0.00 0.00 48 1015.8
20260509144400 20 16 11.3 12.9 0.00 0.00 0.00 48 1015.8
20260509144300 20 86 6.4 16.1 0.00 0.00 0.00 49 1015.8
20260509144212 20 86 6.4 16.1 0.00 0.00 0.00 49 1015.8
20260509144200 20 39 11.3 16.1 0.00 0.00 0.00 49 1015.8
20260509144100 20 19 4.8 16.1 0.00 0.00 0.00 49 1015.8
20260509144000 20 327 8.0 12.9 0.00 0.00 0.00 48 1015.8
20260509143900 20 71 4.8 11.3 0.00 0.00 0.00 48 1015.8
20260509143801 20 57 3.2 14.5 0.00 0.00 0.00 49 1015.8
20260509143713 20 57 3.2 14.5 0.00 0.00 0.00 49 1015.8
20260509143701 20 9 8.0 14.5 0.00 0.00 0.00 48 1015.8
20260509143601 20 55 8.0 14.5 0.00 0.00 0.00 48 1015.8
20260509143501 20 12 6.4 14.5 0.00 0.00 0.00 48 1015.8
20260509143401 20 55 14.5 14.5 0.00 0.00 0.00 49 1015.8
20260509143300 20 11 14.5 14.5 0.00 0.00 0.00 49 1015.7
20260509143214 20 11 14.5 14.5 0.00 0.00 0.00 49 1015.7
20260509143201 20 30 4.8 14.5 0.00 0.00 0.00 49 1015.8
20260509143101 20 31 4.8 14.5 0.00 0.00 0.00 48 1015.8
20260509143001 20 9 14.5 14.5 0.00 0.00 0.00 48 1015.8
20260509142901 20 13 9.7 12.9 0.00 0.00 0.00 48 1015.7
20260509142801 20 26 4.8 17.7 0.00 0.00 0.00 49 1015.7
20260509142713 20 26 4.8 17.7 0.00 0.00 0.00 49 1015.7
20260509142700 20 65 4.8 17.7 0.00 0.00 0.00 48 1015.7
20260509142600 20 34 17.7 17.7 0.00 0.00 0.00 49 1015.7
20260509142500 20 36 4.8 11.3 0.00 0.00 0.00 48 1015.7
20260509142400 20 342 8.0 11.3 0.00 0.00 0.00 48 1015.7
20260509142300 20 40 8.0 22.5 0.00 0.00 0.00 49 1015.8
20260509142212 20 40 8.0 22.5 0.00 0.00 0.00 49 1015.8
20260509142200 20 36 14.5 22.5 0.00 0.00 0.00 48 1015.7
20260509142100 20 39 11.3 22.5 0.00 0.00 0.00 49 1015.7
20260509142001 20 84 12.9 14.5 0.00 0.00 0.00 49 1015.7
20260509141901 20 9 9.7 12.9 0.00 0.00 0.00 49 1015.6
20260509141801 20 51 11.3 19.3 0.00 0.00 0.00 49 1015.6
20260509141713 20 51 11.3 19.3 0.00 0.00 0.00 49 1015.6
20260509141701 20 63 9.7 19.3 0.00 0.00 0.00 49 1015.6
20260509141600 20 47 6.4 19.3 0.00 0.00 0.00 49 1015.6
20260509141501 20 39 19.3 19.3 0.00 0.00 0.00 49 1015.6
20260509141401 20 46 6.4 14.5 0.00 0.00 0.00 49 1015.7
20260509141301 20 5 17.7 17.7 0.00 0.00 0.00 49 1015.6
20260509141213 20 5 17.7 17.7 0.00 0.00 0.00 49 1015.6
20260509141201 20 360 8.0 17.7 0.00 0.00 0.00 49 1015.6
20260509141100 20 355 6.4 17.7 0.00 0.00 0.00 49 1015.6
20260509141000 20 28 4.8 17.7 0.00 0.00 0.00 49 1015.6
20260509140900 20 17 14.5 17.7 0.00 0.00 0.00 49 1015.6
20260509140800 20 5 14.5 24.1 0.00 0.00 0.00 49 1015.6
20260509140712 20 5 14.5 24.1 0.00 0.00 0.00 49 1015.6
20260509140700 20 20 9.7 24.1 0.00 0.00 0.00 48 1015.6
20260509140600 20 19 9.7 24.1 0.00 0.00 0.00 48 1015.6
20260509140500 20 336 8.0 24.1 0.00 0.00 0.00 48 1015.6
20260509140400 20 34 12.9 24.1 0.00 0.00 0.00 48 1015.7
20260509140301 20 24 9.7 20.9 0.00 0.00 0.00 48 1015.7
20260509140213 20 24 9.7 20.9 0.00 0.00 0.00 48 1015.7
20260509140200 20 110 6.4 17.7 0.00 0.00 0.00 48 1015.7
20260509140100 20 76 11.3 17.7 0.00 0.00 0.00 48 1015.6
20260509140000 20 33 8.0 8.0 0.00 0.00 0.00 48 1015.7
20260509135900 20 59 4.8 8.0 0.00 0.00 0.00 48 1015.7
20260509135800 20 45 8.0 16.1 0.00 0.00 0.00 48 1015.7
20260509135712 20 45 8.0 16.1 0.00 0.00 0.00 48 1015.7
20260509135700 20 90 9.7 16.1 0.00 0.00 0.00 48 1015.7
20260509135601 20 13 12.9 16.1 0.00 0.00 0.00 48 1015.7
20260509135501 20 40 4.8 14.5 0.00 0.00 0.00 48 1015.7
20260509135401 20 25 11.3 14.5 0.00 0.00 0.00 48 1015.6
20260509135300 20 360 14.5 16.1 0.00 0.00 0.00 49 1015.6
20260509135212 20 360 14.5 16.1 0.00 0.00 0.00 49 1015.6
20260509135200 20 355 9.7 14.5 0.00 0.00 0.00 49 1015.6
20260509135100 20 76 3.2 14.5 0.00 0.00 0.00 49 1015.6
20260509135001 20 48 9.7 12.9 0.00 0.00 0.00 49 1015.6
20260509134901 20 51 6.4 9.7 0.00 0.00 0.00 49 1015.6
20260509134801 20 34 6.4 17.7 0.00 0.00 0.00 49 1015.6
20260509134713 20 34 6.4 17.7 0.00 0.00 0.00 49 1015.6
20260509134701 20 24 12.9 17.7 0.00 0.00 0.00 49 1015.6
20260509134600 20 5 6.4 16.1 0.00 0.00 0.00 49 1015.6
20260509134500 20 39 6.4 16.1 0.00 0.00 0.00 49 1015.7
20260509134400 20 28 11.3 16.1 0.00 0.00 0.00 49 1015.7
20260509134300 20 5 6.4 19.3 0.00 0.00 0.00 49 1015.7
20260509134212 20 5 6.4 19.3 0.00 0.00 0.00 49 1015.7
20260509134200 20 28 11.3 19.3 0.00 0.00 0.00 49 1015.7
20260509134101 20 18 6.4 19.3 0.00 0.00 0.00 49 1015.7
20260509134001 20 340 9.7 19.3 0.00 0.00 0.00 49 1015.7
20260509133901 20 35 16.1 16.1 0.00 0.00 0.00 49 1015.7
20260509133801 20 339 4.8 19.3 0.00 0.00 0.00 49 1015.7
20260509133713 20 339 4.8 19.3 0.00 0.00 0.00 49 1015.7
20260509133701 20 11 19.3 19.3 0.00 0.00 0.00 49 1015.7
20260509133601 20 30 11.3 14.5 0.00 0.00 0.00 49 1015.7
20260509133500 20 11 9.7 14.5 0.00 0.00 0.00 49 1015.7
20260509133400 20 40 11.3 14.5 0.00 0.00 0.00 49 1015.7
20260509133300 20 9 6.4 22.5 0.00 0.00 0.00 49 1015.7
20260509133212 20 9 6.4 22.5 0.00 0.00 0.00 49 1015.7
20260509133200 20 24 16.1 16.1 0.00 0.00 0.00 49 1015.7
20260509133101 20 46 6.4 14.5 0.00 0.00 0.00 49 1015.7
20260509133000 20 35 11.3 14.5 0.00 0.00 0.00 49 1015.7
20260509132900 20 26 6.4 12.9 0.00 0.00 0.00 49 1015.7
20260509132800 20 24 12.9 24.1 0.00 0.00 0.00 49 1015.7
20260509132712 20 24 12.9 24.1 0.00 0.00 0.00 49 1015.7
20260509132700 20 17 11.3 24.1 0.00 0.00 0.00 49 1015.6
20260509132600 20 58 24.1 24.1 0.00 0.00 0.00 49 1015.7
20260509132501 20 34 16.1 20.9 0.00 0.00 0.00 49 1015.6
20260509132400 20 53 9.7 17.7 0.00 0.00 0.00 49 1015.7
20260509132300 20 106 11.3 17.7 0.00 0.00 0.00 49 1015.7
20260509132212 20 106 11.3 17.7 0.00 0.00 0.00 49 1015.7
20260509132200 20 69 9.7 17.7 0.00 0.00 0.00 49 1015.7
20260509132100 20 44 8.0 17.7 0.00 0.00 0.00 49 1015.8
20260509132000 20 35 6.4 17.7 0.00 0.00 0.00 49 1015.7
20260509131901 20 49 8.0 14.5 0.00 0.00 0.00 49 1015.7
20260509131801 20 33 8.0 16.1 0.00 0.00 0.00 49 1015.7
20260509131713 20 33 8.0 16.1 0.00 0.00 0.00 49 1015.7
20260509131701 20 82 14.5 16.1 0.00 0.00 0.00 49 1015.8
20260509131601 20 27 12.9 16.1 0.00 0.00 0.00 48 1015.8
20260509131501 20 9 9.7 16.1 0.00 0.00 0.00 48 1015.8
20260509131359 20 26 16.1 16.1 0.00 0.00 0.00 48 1015.7
20260509131301 20 52 16.1 25.7 0.00 0.00 0.00 48 1015.8
20260509131213 20 52 16.1 25.7 0.00 0.00 0.00 48 1015.8
20260509131201 20 355 11.3 22.5 0.00 0.00 0.00 48 1015.7
20260509131101 20 34 9.7 22.5 0.00 0.00 0.00 48 1015.8
20260509131001 20 35 9.7 14.5 0.00 0.00 0.00 48 1015.8
20260509130901 20 336 12.9 14.5 0.00 0.00 0.00 48 1015.7
20260509130801 20 16 14.5 19.3 0.00 0.00 0.00 48 1015.8
20260509130712 20 16 14.5 19.3 0.00 0.00 0.00 48 1015.8
20260509130700 20 33 4.8 19.3 0.00 0.00 0.00 48 1015.8
20260509130600 20 52 8.0 19.3 0.00 0.00 0.00 48 1015.8
20260509130500 20 339 4.8 19.3 0.00 0.00 0.00 48 1015.9
20260509130400 20 338 6.4 16.1 0.00 0.00 0.00 48 1015.8
20260509130301 20 31 9.7 19.3 0.00 0.00 0.00 47 1015.8
20260509130213 20 31 9.7 19.3 0.00 0.00 0.00 47 1015.8
20260509130201 20 351 12.9 19.3 0.00 0.00 0.00 47 1015.9
20260509130100 20 360 9.7 19.3 0.00 0.00 0.00 48 1015.9
20260509130000 20 360 4.8 19.3 0.00 0.00 0.00 48 1015.8
20260509125900 21 41 12.9 16.1 0.00 0.00 0.00 48 1015.8
20260509125800 21 69 9.7 16.1 0.00 0.00 0.00 48 1015.8
20260509125712 21 69 9.7 16.1 0.00 0.00 0.00 48 1015.8
20260509125700 20 58 11.3 16.1 0.00 0.00 0.00 48 1015.8
20260509125600 20 80 8.0 16.1 0.00 0.00 0.00 48 1015.8
20260509125500 20 9 12.9 16.1 0.00 0.00 0.00 48 1015.8
20260509125401 20 31 6.4 12.9 0.00 0.00 0.00 48 1015.8
20260509125301 20 34 14.5 17.7 0.00 0.00 0.00 48 1015.8
20260509125213 20 34 14.5 17.7 0.00 0.00 0.00 48 1015.8
20260509125200 20 123 4.8 14.5 0.00 0.00 0.00 48 1015.8
20260509125101 20 150 4.8 14.5 0.00 0.00 0.00 48 1015.9
20260509125000 20 331 8.0 14.5 0.00 0.00 0.00 48 1015.9
20260509124900 20 59 11.3 14.5 0.00 0.00 0.00 49 1015.9
20260509124800 20 66 4.8 20.9 0.00 0.00 0.00 48 1015.9
20260509124713 20 66 4.8 20.9 0.00 0.00 0.00 48 1015.9
20260509124701 20 22 6.4 20.9 0.00 0.00 0.00 48 1015.9
20260509124600 20 24 6.4 20.9 0.00 0.00 0.00 48 1015.9
20260509124500 20 360 11.3 20.9 0.00 0.00 0.00 48 1015.9
20260509124400 20 56 16.1 20.9 0.00 0.00 0.00 48 1015.9
20260509124301 20 41 17.7 20.9 0.00 0.00 0.00 48 1016.0
20260509124213 20 41 17.7 20.9 0.00 0.00 0.00 48 1016.0
20260509124201 20 51 8.0 20.9 0.00 0.00 0.00 48 1016.0
20260509124101 20 355 14.5 20.9 0.00 0.00 0.00 48 1015.9
20260509124000 20 5 12.9 20.9 0.00 0.00 0.00 48 1015.9
20260509123900 20 355 12.9 19.3 0.00 0.00 0.00 48 1016.0
20260509123800 20 355 8.0 16.1 0.00 0.00 0.00 48 1016.1
20260509123712 20 355 8.0 16.1 0.00 0.00 0.00 48 1016.1
20260509123700 20 83 9.7 16.1 0.00 0.00 0.00 48 1016.0
20260509123559 20 360 16.1 16.1 0.00 0.00 0.00 48 1016.1
20260509123500 20 338 9.7 16.1 0.00 0.00 0.00 48 1016.1
20260509123401 20 9 16.1 16.1 0.00 0.00 0.00 48 1016.1
20260509123300 20 11 11.3 16.1 0.00 0.00 0.00 48 1016.1
20260509123212 20 11 11.3 16.1 0.00 0.00 0.00 48 1016.1
20260509123200 20 65 4.8 16.1 0.00 0.00 0.00 48 1016.1
20260509123100 20 9 9.7 14.5 0.00 0.00 0.00 48 1016.2
20260509123000 20 325 6.4 14.5 0.00 0.00 0.00 48 1016.2
20260509122900 20 338 11.3 14.5 0.00 0.00 0.00 48 1016.2
20260509122800 20 61 11.3 16.1 0.00 0.00 0.00 48 1016.3
20260509122712 20 61 11.3 16.1 0.00 0.00 0.00 48 1016.3
20260509122700 20 331 16.1 16.1 0.00 0.00 0.00 48 1016.2
20260509122600 20 15 8.0 14.5 0.00 0.00 0.00 48 1016.3
20260509122500 20 355 11.3 12.9 0.00 0.00 0.00 48 1016.2
20260509122400 20 72 9.7 12.9 0.00 0.00 0.00 48 1016.2
20260509122300 20 64 6.4 19.3 0.00 0.00 0.00 48 1016.3
20260509122212 20 64 6.4 19.3 0.00 0.00 0.00 48 1016.3
20260509122201 20 57 12.9 19.3 0.00 0.00 0.00 48 1016.2
20260509122101 20 32 6.4 14.5 0.00 0.00 0.00 48 1016.3
20260509122000 20 15 12.9 14.5 0.00 0.00 0.00 48 1016.2
20260509121900 20 34 14.5 14.5 0.00 0.00 0.00 48 1016.3
20260509121800 20 32 8.0 19.3 0.00 0.00 0.00 48 1016.2
20260509121712 20 32 8.0 19.3 0.00 0.00 0.00 48 1016.2
20260509121700 20 32 14.5 19.3 0.00 0.00 0.00 48 1016.2
20260509121601 20 25 11.3 19.3 0.00 0.00 0.00 49 1016.3
20260509121501 20 112 6.4 19.3 0.00 0.00 0.00 49 1016.3
20260509121401 20 54 11.3 19.3 0.00 0.00 0.00 49 1016.3
20260509121301 20 27 6.4 17.7 0.00 0.00 0.00 49 1016.3
20260509121213 20 27 6.4 17.7 0.00 0.00 0.00 49 1016.3
20260509121201 20 355 9.7 16.1 0.00 0.00 0.00 49 1016.3
20260509121100 20 345 9.7 16.1 0.00 0.00 0.00 48 1016.3
20260509121000 20 9 6.4 16.1 0.00 0.00 0.00 48 1016.2
20260509120900 20 41 16.1 16.1 0.00 0.00 0.00 49 1016.3
20260509120800 20 27 12.9 16.1 0.00 0.00 0.00 48 1016.2
20260509120712 20 27 12.9 16.1 0.00 0.00 0.00 48 1016.2
20260509120700 20 17 6.4 16.1 0.00 0.00 0.00 48 1016.3
20260509120601 20 20 8.0 14.5 0.00 0.00 0.00 49 1016.2
20260509120501 20 355 12.9 12.9 0.00 0.00 0.00 49 1016.2
20260509120401 20 30 4.8 8.0 0.00 0.00 0.00 49 1016.3
20260509120301 20 16 4.8 19.3 0.00 0.00 0.00 49 1016.3
20260509120213 20 16 4.8 19.3 0.00 0.00 0.00 49 1016.3
20260509120200 20 17 9.7 19.3 0.00 0.00 0.00 48 1016.3
20260509120100 20 9 4.8 19.3 0.00 0.00 0.00 48 1016.3
20260509120000 20 51 12.9 14.5 0.00 0.00 0.00 48 1016.3
20260509115900 20 28 9.7 14.5 0.00 0.00 0.00 48 1016.3
20260509115800 20 66 14.5 19.3 0.00 0.00 0.00 48 1016.3
20260509115712 20 66 14.5 19.3 0.00 0.00 0.00 48 1016.3
20260509115700 20 47 16.1 16.1 0.00 0.00 0.00 48 1016.3
20260509115600 20 44 8.0 16.1 0.00 0.00 0.00 48 1016.3
20260509115500 20 30 16.1 16.1 0.00 0.00 0.00 48 1016.3
20260509115400 20 33 14.5 14.5 0.00 0.00 0.00 48 1016.3
20260509115301 20 55 4.8 19.3 0.00 0.00 0.00 48 1016.3
20260509115213 20 55 4.8 19.3 0.00 0.00 0.00 48 1016.3
20260509115201 20 360 4.8 19.3 0.00 0.00 0.00 48 1016.4
20260509115101 20 62 6.4 19.3 0.00 0.00 0.00 48 1016.3
20260509115000 21 27 11.3 16.1 0.00 0.00 0.00 48 1016.4
20260509114900 21 61 14.5 14.5 0.00 0.00 0.00 48 1016.3
20260509114801 21 360 11.3 20.9 0.00 0.00 0.00 47 1016.3
20260509114713 21 360 11.3 20.9 0.00 0.00 0.00 47 1016.3
20260509114701 21 348 9.7 20.9 0.00 0.00 0.00 47 1016.4
20260509114601 21 360 6.4 20.9 0.00 0.00 0.00 47 1016.4
20260509114500 21 28 4.8 11.3 0.00 0.00 0.00 47 1016.4
20260509114400 21 75 4.8 11.3 0.00 0.00 0.00 47 1016.3
20260509114300 21 62 4.8 12.9 0.00 0.00 0.00 48 1016.4
20260509114212 21 62 4.8 12.9 0.00 0.00 0.00 48 1016.4
20260509114201 21 53 8.0 12.9 0.00 0.00 0.00 48 1016.3
20260509114100 21 346 3.2 12.9 0.00 0.00 0.00 47 1016.3
20260509114000 21 31 9.7 11.3 0.00 0.00 0.00 47 1016.3
20260509113900 21 9 4.8 4.8 0.00 0.00 0.00 47 1016.4
20260509113800 21 15 4.8 17.7 0.00 0.00 0.00 46 1016.4
20260509113712 21 15 4.8 17.7 0.00 0.00 0.00 46 1016.4
20260509113700 21 78 9.7 17.7 0.00 0.00 0.00 47 1016.4
20260509113600 21 348 4.8 17.7 0.00 0.00 0.00 47 1016.4
20260509113501 21 24 4.8 17.7 0.00 0.00 0.00 47 1016.4
20260509113401 21 355 11.3 17.7 0.00 0.00 0.00 47 1016.4
20260509113301 21 328 8.0 17.7 0.00 0.00 0.00 47 1016.4
20260509113213 21 328 8.0 17.7 0.00 0.00 0.00 47 1016.4
20260509113201 21 333 3.2 17.7 0.00 0.00 0.00 47 1016.4
20260509113100 21 337 4.8 17.7 0.00 0.00 0.00 47 1016.4
20260509113000 21 15 4.8 17.7 0.00 0.00 0.00 47 1016.5
20260509112900 21 22 4.8 17.7 0.00 0.00 0.00 47 1016.5
20260509112800 21 40 6.4 16.1 0.00 0.00 0.00 46 1016.5
20260509112712 21 40 6.4 16.1 0.00 0.00 0.00 46 1016.5
20260509112700 21 46 8.0 16.1 0.00 0.00 0.00 45 1016.5
20260509112601 21 42 4.8 16.1 0.00 0.00 0.00 45 1016.5
20260509112501 21 67 11.3 16.1 0.00 0.00 0.00 46 1016.6
20260509112401 21 38 8.0 8.0 0.00 0.00 0.00 46 1016.5
20260509112300 21 41 4.8 9.7 0.00 0.00 0.00 46 1016.6
20260509112212 21 41 4.8 9.7 0.00 0.00 0.00 46 1016.6
20260509112200 21 87 8.0 9.7 0.00 0.00 0.00 46 1016.6
20260509112100 21 74 4.8 9.7 0.00 0.00 0.00 47 1016.6
20260509112000 21 57 4.8 9.7 0.00 0.00 0.00 47 1016.6
20260509111900 21 355 4.8 4.8 0.00 0.00 0.00 47 1016.7
20260509111800 21 26 11.3 14.5 0.00 0.00 0.00 47 1016.6
20260509111712 21 26 11.3 14.5 0.00 0.00 0.00 47 1016.6
20260509111700 21 50 4.8 12.9 0.00 0.00 0.00 47 1016.6
20260509111601 21 313 4.8 12.9 0.00 0.00 0.00 46 1016.6
20260509111501 21 59 11.3 12.9 0.00 0.00 0.00 45 1016.6
20260509111400 21 91 4.8 12.9 0.00 0.00 0.00 45 1016.7
20260509111300 21 27 4.8 11.3 0.00 0.00 0.00 45 1016.6
20260509111212 21 27 4.8 11.3 0.00 0.00 0.00 45 1016.6
20260509111200 21 74 4.8 11.3 0.00 0.00 0.00 46 1016.7
20260509111100 21 36 4.8 11.3 0.00 0.00 0.00 46 1016.7
20260509111000 21 188 1.6 4.8 0.00 0.00 0.00 46 1016.7
20260509110901 21 67 3.2 4.8 0.00 0.00 0.00 47 1016.7
20260509110801 21 87 9.7 9.7 0.00 0.00 0.00 47 1016.8
20260509110713 21 87 9.7 9.7 0.00 0.00 0.00 47 1016.8
20260509110701 21 48 3.2 9.7 0.00 0.00 0.00 47 1016.8
20260509110601 21 35 8.0 9.7 0.00 0.00 0.00 47 1016.8
20260509110500 21 24 4.8 9.7 0.00 0.00 0.00 47 1016.8
20260509110400 21 35 6.4 9.7 0.00 0.00 0.00 47 1016.8
20260509110300 21 333 4.8 16.1 0.00 0.00 0.00 47 1016.8
20260509110212 21 333 4.8 16.1 0.00 0.00 0.00 47 1016.8
20260509110200 21 33 8.0 16.1 0.00 0.00 0.00 47 1016.8
20260509110001 21 34 6.4 16.1 0.00 0.00 0.00 47 1016.8
20260509105901 21 15 9.7 16.1 0.00 0.00 0.00 46 1016.8
20260509105800 21 90 16.1 17.7 0.00 0.00 0.00 45 1016.7
20260509105712 21 90 16.1 17.7 0.00 0.00 0.00 45 1016.7
20260509105700 21 82 8.0 14.5 0.00 0.00 0.00 45 1016.8
20260509105600 21 54 11.3 14.5 0.00 0.00 0.00 46 1016.8
20260509105500 21 71 14.5 14.5 0.00 0.00 0.00 45 1016.8
20260509105400 21 344 8.0 11.3 0.00 0.00 0.00 45 1016.8
20260509105300 21 45 3.2 12.9 0.00 0.00 0.00 45 1016.8
20260509105213 21 45 3.2 12.9 0.00 0.00 0.00 45 1016.8
20260509105201 21 67 4.8 12.9 0.00 0.00 0.00 45 1016.8
20260509105100 21 70 4.8 12.9 0.00 0.00 0.00 45 1016.8
20260509105000 21 79 8.0 11.3 0.00 0.00 0.00 45 1016.8
20260509104900 21 49 6.4 11.3 0.00 0.00 0.00 45 1016.8
20260509104800 21 176 3.2 12.9 0.00 0.00 0.00 45 1016.8
20260509104712 21 176 3.2 12.9 0.00 0.00 0.00 45 1016.8
20260509104700 21 38 1.6 12.9 0.00 0.00 0.00 44 1016.8
20260509104600 21 30 4.8 12.9 0.00 0.00 0.00 44 1016.8
20260509104500 21 28 4.8 12.9 0.00 0.00 0.00 44 1016.8
20260509104400 21 58 11.3 12.9 0.00 0.00 0.00 44 1016.9
20260509104300 21 84 11.3 14.5 0.00 0.00 0.00 45 1016.9
20260509104212 21 84 11.3 14.5 0.00 0.00 0.00 45 1016.9
20260509104159 21 71 4.8 12.9 0.00 0.00 0.00 45 1016.8
20260509104101 21 34 9.7 12.9 0.00 0.00 0.00 44 1016.8
20260509104001 21 126 8.0 12.9 0.00 0.00 0.00 44 1016.8
20260509103901 21 49 4.8 12.9 0.00 0.00 0.00 44 1016.9
20260509103800 20 95 9.7 16.1 0.00 0.00 0.00 44 1016.9
20260509103712 20 95 9.7 16.1 0.00 0.00 0.00 44 1016.9
20260509103700 20 80 6.4 16.1 0.00 0.00 0.00 44 1016.9
20260509103600 20 96 12.9 14.5 0.00 0.00 0.00 44 1016.9
20260509103500 20 67 3.2 14.5 0.00 0.00 0.00 44 1016.9
20260509103401 20 78 4.8 14.5 0.00 0.00 0.00 44 1017.0
20260509103301 20 341 6.4 16.1 0.00 0.00 0.00 44 1016.9
20260509103213 20 341 6.4 16.1 0.00 0.00 0.00 44 1016.9
20260509103201 20 74 11.3 16.1 0.00 0.00 0.00 44 1016.9
20260509103101 20 12 6.4 16.1 0.00 0.00 0.00 44 1016.9
20260509103001 20 24 9.7 14.5 0.00 0.00 0.00 44 1017.0
20260509102900 20 28 14.5 14.5 0.00 0.00 0.00 44 1016.9
20260509102800 20 80 8.0 14.5 0.00 0.00 0.00 44 1016.9
20260509102712 20 80 8.0 14.5 0.00 0.00 0.00 44 1016.9
20260509102700 20 39 4.8 14.5 0.00 0.00 0.00 43 1016.9
20260509102559 20 49 4.8 14.5 0.00 0.00 0.00 43 1017.0
20260509102501 20 58 4.8 14.5 0.00 0.00 0.00 43 1016.9
20260509102401 20 42 4.8 9.7 0.00 0.00 0.00 43 1017.0
20260509102305 20 82 8.0 12.9 0.00 0.00 0.00 43 1017.0
20260509102212 20 82 8.0 12.9 0.00 0.00 0.00 43 1017.0
20260509102200 20 43 9.7 12.9 0.00 0.00 0.00 42 1017.0
20260509102100 20 59 4.8 12.9 0.00 0.00 0.00 42 1017.0
20260509102000 20 72 12.9 12.9 0.00 0.00 0.00 42 1017.0
20260509101900 20 70 4.8 12.9 0.00 0.00 0.00 42 1017.0
20260509101800 20 69 6.4 16.1 0.00 0.00 0.00 42 1017.1
20260509101712 20 69 6.4 16.1 0.00 0.00 0.00 42 1017.1
20260509101700 20 46 12.9 16.1 0.00 0.00 0.00 42 1017.0
20260509101601 20 333 8.0 14.5 0.00 0.00 0.00 42 1017.1
20260509101501 20 57 4.8 9.7 0.00 0.00 0.00 41 1017.0
20260509101401 20 80 8.0 9.7 0.00 0.00 0.00 41 1017.0
20260509101301 20 37 4.8 17.7 0.00 0.00 0.00 41 1017.0
20260509101212 20 37 4.8 17.7 0.00 0.00 0.00 41 1017.0
20260509101200 20 48 4.8 17.7 0.00 0.00 0.00 41 1017.0
20260509101100 20 32 3.2 12.9 0.00 0.00 0.00 40 1017.0
20260509101001 20 52 4.8 12.9 0.00 0.00 0.00 40 1017.0
20260509100901 20 35 9.7 9.7 0.00 0.00 0.00 40 1017.0
20260509100801 20 22 6.4 11.3 0.00 0.00 0.00 40 1017.0
20260509100713 20 22 6.4 11.3 0.00 0.00 0.00 40 1017.0
20260509100701 20 27 6.4 11.3 0.00 0.00 0.00 40 1017.0
20260509100601 20 11 4.8 11.3 0.00 0.00 0.00 40 1017.0
20260509100501 20 63 4.8 11.3 0.00 0.00 0.00 40 1017.0
20260509100400 20 92 6.4 8.0 0.00 0.00 0.00 39 1017.1
20260509100259 20 98 8.0 16.1 0.00 0.00 0.00 39 1017.1
20260509100213 20 98 8.0 16.1 0.00 0.00 0.00 39 1017.1
20260509100201 20 69 16.1 16.1 0.00 0.00 0.00 39 1017.1
20260509100001 20 59 4.8 14.5 0.00 0.00 0.00 39 1017.0
20260509095901 20 95 6.4 11.3 0.00 0.00 0.00 38 1017.0
20260509095800 20 27 11.3 11.3 0.00 0.00 0.00 38 1017.0
20260509095712 20 27 11.3 11.3 0.00 0.00 0.00 38 1017.0
20260509095700 20 31 6.4 9.7 0.00 0.00 0.00 38 1017.0
20260509095601 20 355 4.8 9.7 0.00 0.00 0.00 38 1017.0
20260509095501 20 346 3.2 9.7 0.00 0.00 0.00 38 1017.0
20260509095401 20 119 1.6 9.7 0.00 0.00 0.00 38 1017.1
20260509095305 20 32 11.3 14.5 0.00 0.00 0.00 37 1017.1
20260509095212 20 32 11.3 14.5 0.00 0.00 0.00 37 1017.1
20260509095200 20 36 11.3 14.5 0.00 0.00 0.00 37 1017.1
20260509095100 20 45 14.5 14.5 0.00 0.00 0.00 37 1017.1
20260509095000 20 54 11.3 11.3 0.00 0.00 0.00 37 1017.1
20260509094900 20 360 3.2 4.8 0.00 0.00 0.00 37 1017.1
20260509094800 20 20 3.2 12.9 0.00 0.00 0.00 37 1017.1
20260509094713 20 20 3.2 12.9 0.00 0.00 0.00 37 1017.1
20260509094701 20 29 11.3 12.9 0.00 0.00 0.00 36 1017.1
20260509094600 20 23 6.4 11.3 0.00 0.00 0.00 36 1017.1
20260509094500 19 31 4.8 11.3 0.00 0.00 0.00 36 1017.2
20260509094400 19 86 9.7 11.3 0.00 0.00 0.00 36 1017.2
20260509094301 19 74 3.2 11.3 0.00 0.00 0.00 36 1017.1
20260509094213 19 74 3.2 11.3 0.00 0.00 0.00 36 1017.1
20260509094201 19 75 9.7 11.3 0.00 0.00 0.00 35 1017.2
20260509094101 19 100 9.7 9.7 0.00 0.00 0.00 35 1017.2
20260509094001 19 64 3.2 9.7 0.00 0.00 0.00 35 1017.2
20260509093901 19 44 8.0 9.7 0.00 0.00 0.00 34 1017.1
20260509093800 19 24 4.8 14.5 0.00 0.00 0.00 34 1017.2
20260509093712 19 24 4.8 14.5 0.00 0.00 0.00 34 1017.2
20260509093700 19 63 9.7 12.9 0.00 0.00 0.00 33 1017.1
20260509093600 19 360 4.8 12.9 0.00 0.00 0.00 33 1017.1